GEFSSGP_500_meanwind_240.txt.gz
Wind_Speed
20 21 21 21 21 20 21 22 20 19 17 17 17 16 15 14 13 13 13 13 12 12 12 11 10 10 9 9 8 7 8 8 8 8 8 8 8 9 9 9 9 9 9 9 9 8 8 7 7
18 19 21 21 22 20 21 21 19 19 18 18 17 16 15 14 14 14 13 13 12 12 12 12 11 10 9 8 7 8 8 8 8 8 8 8 7 8 8 8 9 9 9 9 8 8 7 7 6
17 18 20 22 21 21 22 21 20 19 19 18 17 16 15 15 14 14 13 13 13 12 12 11 11 9 9 8 7 7 6 7 8 7 7 7 7 7 7 8 9 9 9 8 7 7 8 7 7
15 18 20 21 21 22 22 21 20 19 18 18 17 16 15 15 15 14 13 13 13 13 12 12 11 10 9 9 7 7 6 6 6 7 6 7 8 7 7 8 9 8 8 8 8 7 7 7 7
14 16 20 21 21 21 21 21 20 19 18 18 18 17 16 16 15 14 13 13 13 12 12 12 11 11 10 8 7 7 7 7 7 7 7 7 7 8 8 8 8 8 9 9 8 7 7 8 8
12 14 18 20 20 20 20 20 18 17 17 18 17 17 16 16 15 15 14 13 13 12 12 12 11 11 10 9 8 7 7 7 7 7 7 7 7 8 9 9 9 9 8 7 8 7 8 8 8
13 13 16 18 18 18 19 19 18 17 17 17 17 17 17 16 15 15 14 14 13 12 12 12 11 12 11 10 9 8 7 7 7 6 6 7 7 7 8 8 8 8 8 7 7 7 7 7 7
11 12 14 16 16 17 18 18 18 18 17 17 18 17 16 16 15 14 14 14 13 12 11 11 12 12 11 10 10 8 8 7 6 6 5 6 7 7 7 7 7 7 7 7 7 7 7 7 6
9 10 12 14 14 16 17 18 18 18 18 18 18 17 16 16 15 14 14 14 13 12 12 12 12 11 11 10 10 9 7 7 7 6 6 6 6 7 6 6 6 7 7 7 7 7 6 6 6
8 7 11 12 12 15 16 17 18 19 18 18 18 17 16 15 15 14 14 14 13 12 12 11 11 11 10 10 9 9 8 7 6 6 6 6 6 6 6 6 6 6 6 5 5 5 5 5 4
6 7 10 11 11 13 14 17 18 19 18 17 17 17 17 16 15 15 14 14 13 12 12 11 11 10 10 9 9 8 8 7 6 6 6 6 6 6 6 6 6 5 5 4 4 4 4 4 4
5 6 9 11 12 13 14 15 16 17 17 17 17 16 16 17 16 15 15 14 14 13 12 12 11 11 10 9 8 8 8 7 7 7 7 7 6 6 6 5 5 5 5 5 5 4 3 3 3
3 4 6 9 11 13 13 14 15 15 16 16 16 16 16 16 16 15 15 15 15 14 13 12 11 10 10 10 9 9 8 8 7 6 6 6 5 5 5 5 5 5 4 4 4 4 3 3 3
3 1 3 6 9 11 12 13 13 14 15 16 15 15 15 15 16 15 15 15 14 13 13 12 11 11 10 10 9 9 8 8 7 7 6 6 5 5 5 5 5 4 4 3 3 3 4 3 3
5 3 1 3 6 9 11 12 12 13 14 15 15 14 14 15 15 15 15 15 14 14 12 12 12 12 11 10 9 9 8 8 8 7 7 6 5 4 4 4 3 3 3 3 3 3 3 3 2
7 6 4 4 5 7 10 11 11 11 13 13 14 14 14 13 14 14 14 13 13 14 13 12 11 11 11 11 10 10 9 8 7 7 7 6 5 4 4 4 4 4 3 3 3 3 2 2 2
8 7 5 5 6 7 8 10 10 11 12 12 13 13 13 13 12 12 13 13 13 13 13 13 11 11 11 11 10 10 9 8 7 7 7 6 5 5 4 3 3 3 3 3 3 3 3 2 2
8 8 6 7 8 8 8 8 9 10 10 11 11 11 12 12 11 11 12 12 12 12 13 13 12 12 12 10 10 10 9 8 8 7 7 6 5 5 5 4 3 3 3 3 3 3 3 2 2
11 10 9 9 11 11 9 8 8 9 10 10 10 10 11 11 11 11 11 11 12 12 12 12 12 11 11 11 10 10 10 9 8 7 6 6 5 5 4 4 3 3 3 3 3 3 3 2 1
15 13 11 11 12 11 10 9 7 8 9 9 10 10 10 10 10 10 10 11 11 11 11 11 11 11 12 11 9 9 9 8 7 6 5 5 5 5 5 4 3 3 3 3 3 3 3 3 2
19 17 15 13 12 12 13 11 9 8 10 8 9 10 9 9 9 8 9 10 10 10 10 10 10 10 11 10 9 8 7 7 6 5 5 5 5 4 4 4 4 4 4 3 3 3 3 3 2
21 19 18 16 15 15 14 11 9 10 9 9 9 9 9 8 7 7 7 8 9 10 10 10 9 9 9 9 8 8 7 7 6 5 5 5 5 4 4 5 5 5 5 3 3 3 3 3 3
22 20 20 18 17 15 15 14 12 12 12 11 9 9 8 8 7 7 6 7 8 9 9 9 9 9 8 7 7 7 7 7 6 5 5 5 5 5 5 5 5 5 5 4 4 4 4 5 5
23 22 22 22 20 17 16 16 14 12 12 11 9 10 9 9 7 7 6 6 6 7 8 8 9 9 8 7 7 6 6 6 6 5 5 5 5 5 5 5 6 5 5 5 5 6 6 6 6
26 25 25 25 23 19 17 17 14 12 12 11 11 11 10 10 8 7 7 6 6 7 7 8 8 8 8 7 7 6 6 6 6 6 6 6 6 5 5 6 6 6 6 6 6 7 7 8 8
27 27 26 25 22 20 19 18 15 13 14 14 13 12 11 10 9 7 7 7 7 7 7 7 8 8 8 8 8 7 8 7 7 7 7 7 7 7 6 7 7 7 7 7 7 8 9 9 9
27 27 26 25 23 22 21 19 17 16 16 15 14 13 12 12 11 9 9 9 8 8 8 8 8 8 8 8 9 9 9 9 8 9 8 8 8 8 8 8 9 8 8 9 9 9 9 9 9
27 27 27 26 24 24 22 20 19 18 15 14 13 13 14 14 12 11 11 10 10 9 9 8 8 8 9 9 9 9 10 10 10 10 10 10 10 10 10 10 9 9 9 9 10 10 10 9 9
29 29 29 28 26 25 23 22 21 20 18 17 15 15 16 15 14 12 11 11 10 10 9 9 9 9 10 10 10 10 10 10 11 11 12 12 12 12 12 12 11 10 10 10 10 11 11 10 10
29 29 30 30 28 27 26 24 22 21 19 17 17 17 17 15 14 12 12 12 11 10 10 11 10 10 11 11 11 11 11 11 11 12 12 13 13 13 13 13 12 11 11 10 11 12 12 11 12

GEFSSGP_500_meanwind_246.txt.gz
Wind_Speed
21 21 20 20 21 19 20 21 22 22 20 19 19 18 17 15 14 14 14 13 11 10 10 10 10 10 10 9 9 9 9 9 8 9 9 9 9 9 9 9 9 9 9 9 9 9 9 9 8
20 20 19 19 19 19 21 22 22 21 20 20 19 18 17 16 15 14 14 13 11 10 11 10 11 10 10 10 9 9 10 9 9 9 9 9 9 9 9 9 9 9 9 9 9 9 8 8 7
19 19 19 19 19 20 22 22 22 21 20 20 19 18 17 16 15 14 14 13 11 11 11 12 11 9 9 9 9 10 9 9 8 8 8 8 8 9 8 8 8 9 9 8 8 8 7 7 7
18 19 19 19 19 20 21 22 22 21 20 19 18 18 17 16 15 14 13 12 11 12 12 12 12 11 10 10 9 9 9 9 8 8 8 8 8 8 8 8 8 8 8 8 8 7 7 8 7
17 18 19 19 19 20 21 22 22 21 20 19 18 18 17 16 15 14 13 12 11 11 12 13 12 11 11 11 10 9 9 9 9 8 8 8 7 7 7 7 8 8 8 8 8 7 7 7 7
17 17 18 19 19 20 21 21 22 21 20 19 18 18 18 17 15 15 14 13 12 12 13 13 13 12 11 10 9 9 9 9 9 9 8 8 7 8 7 7 8 9 8 7 8 7 7 7 7
16 16 17 19 20 20 21 21 21 21 21 19 18 17 18 17 15 15 14 13 13 13 13 13 12 12 11 10 9 9 9 8 8 8 8 8 7 7 7 7 7 8 8 8 7 7 7 7 7
14 15 16 18 20 21 21 21 21 21 21 19 19 18 17 17 15 15 14 14 13 13 13 13 12 11 11 11 10 9 8 8 8 7 8 7 7 7 7 8 6 6 7 7 7 7 7 7 6
12 14 15 18 19 20 21 21 20 20 20 20 19 18 17 17 16 15 15 15 14 13 13 12 11 11 10 10 10 9 8 8 8 8 7 7 7 7 7 7 7 6 6 6 6 7 7 7 6
10 13 15 16 18 19 20 20 20 20 20 19 19 18 17 17 16 16 15 15 15 14 13 12 11 11 10 9 9 9 8 7 7 7 7 7 6 6 6 6 6 6 6 6 6 6 6 6 6
8 11 13 15 17 19 20 20 20 20 20 19 18 18 17 17 17 16 16 15 15 15 14 13 13 11 10 9 8 8 8 8 7 7 7 7 7 6 6 6 6 6 6 6 5 5 5 4 4
6 9 11 14 16 18 19 19 19 19 19 18 17 17 17 16 17 16 16 16 16 15 15 14 13 12 11 9 8 8 8 8 8 8 7 7 8 7 7 7 7 6 6 5 5 5 4 4 4
4 7 9 12 14 16 17 18 18 18 18 17 17 17 17 17 16 16 16 16 15 15 15 15 14 13 11 9 8 7 8 8 8 8 7 7 7 7 7 7 6 5 5 5 5 4 4 3 3
3 4 7 9 12 13 15 16 16 16 17 16 17 16 16 17 16 16 16 15 15 15 15 15 14 14 12 11 9 7 7 7 7 7 7 7 6 6 6 6 6 5 5 4 4 3 3 3 2
1 1 4 6 8 10 12 13 14 15 15 16 16 16 15 16 16 16 16 15 14 14 14 14 14 13 12 12 11 10 9 8 8 8 7 6 6 5 5 5 5 5 4 4 3 3 3 2 2
4 1 1 3 5 7 9 11 12 13 14 14 14 14 15 15 15 15 15 14 13 13 13 13 13 13 12 12 12 11 10 9 8 8 7 6 6 5 5 5 4 3 3 3 2 2 2 2 1
7 4 2 1 2 5 6 8 9 11 12 13 13 13 13 14 14 14 14 14 13 12 12 12 12 12 12 11 11 11 10 9 8 7 6 5 5 4 4 4 4 4 4 3 2 1 1 1 1
9 7 5 3 2 3 5 6 7 8 9 10 11 12 12 13 13 13 13 13 13 13 11 11 11 11 11 11 10 10 9 9 8 7 5 5 4 4 3 3 4 4 3 3 2 2 2 2 2
13 10 8 6 5 4 3 5 5 6 7 9 10 11 10 11 12 12 12 12 12 12 12 10 10 10 11 11 10 10 9 8 7 6 5 5 4 4 4 3 3 3 3 3 3 3 3 3 2
16 13 11 10 9 7 5 4 4 5 6 8 9 10 9 10 11 11 11 11 11 11 11 11 9 9 10 10 10 9 9 7 6 5 5 5 4 4 4 4 3 3 3 4 4 3 3 3 3
18 16 15 14 12 10 8 6 5 5 5 6 7 9 8 8 9 10 10 10 10 10 10 10 10 9 9 9 8 8 8 7 5 5 5 5 5 4 4 3 4 4 4 4 4 5 4 4 4
21 19 18 17 16 13 11 9 7 6 6 6 7 8 7 7 8 8 9 9 9 9 9 9 9 9 9 9 8 8 7 7 7 5 4 5 4 4 5 5 5 5 6 5 5 5 5 5 6
24 22 21 20 19 17 15 12 8 8 7 6 6 7 7 6 8 7 7 8 8 9 8 8 8 8 8 9 9 8 8 7 7 5 5 5 5 5 6 6 6 7 7 7 7 6 6 7 8
26 25 24 23 22 21 17 15 12 9 8 6 6 7 6 6 7 7 7 7 8 8 8 8 7 7 7 8 8 8 8 8 7 6 6 6 6 6 6 7 7 7 8 8 8 8 7 8 9
29 27 26 25 25 23 20 18 14 11 9 8 7 7 7 6 8 8 7 7 7 8 8 8 7 6 6 7 7 7 8 7 7 7 7 7 7 7 7 8 8 9 9 9 9 9 8 9 9
30 29 28 27 26 24 22 20 16 14 12 10 9 9 9 8 8 8 8 7 7 8 8 8 8 8 7 6 6 7 8 8 8 8 8 8 9 9 9 10 10 10 10 10 9 9 9 9 9
31 30 29 28 28 27 25 22 19 17 14 12 11 11 10 10 9 9 9 9 8 9 9 8 8 8 8 8 7 8 9 9 9 9 9 10 10 10 11 11 11 11 11 11 11 10 10 10 11
33 31 30 30 29 28 27 24 21 19 16 14 12 12 11 11 11 10 10 10 10 10 10 10 10 9 9 9 9 9 10 10 10 11 11 11 11 12 12 12 12 12 12 12 12 12 12 12 12
33 33 32 30 30 29 27 24 21 20 19 17 15 13 13 13 12 12 12 11 12 11 11 11 11 11 12 11 10 11 11 11 12 12 12 12 13 13 13 13 13 13 13 13 13 13 13 13 14
33 32 31 31 30 29 28 25 21 20 20 18 17 15 15 14 13 13 13 13 13 13 13 13 13 13 13 13 12 12 12 12 12 13 13 13 14 14 15 15 15 15 14 14 14 15 15 14 15

GEFSSGP_500_meanwind_252.txt.gz
Wind_Speed
20 20 19 19 20 18 18 19 19 18 18 17 16 15 15 15 15 14 13 12 11 10 9 9 8 8 9 9 9 9 10 10 10 10 11 11 11 11 10 11 10 10 11 12 12 11 11 11 10
20 20 19 20 19 16 17 18 18 18 18 18 17 16 16 15 15 14 13 12 11 10 9 9 9 9 9 9 8 8 9 9 9 10 10 10 10 11 11 11 11 10 10 11 11 10 10 10 10
19 19 19 19 16 16 17 17 17 18 18 17 17 16 16 15 15 13 13 12 11 10 10 9 9 9 8 8 9 9 9 9 9 10 10 10 10 10 10 10 10 10 10 10 9 9 9 9 9
18 19 19 18 16 16 17 17 17 18 18 17 16 16 15 15 14 13 13 13 12 11 10 10 9 9 8 9 9 8 9 9 9 9 10 9 9 9 9 10 10 10 10 10 10 9 9 10 9
17 19 18 16 16 17 18 18 19 19 19 18 17 16 16 16 15 14 13 12 12 11 11 11 10 10 9 9 8 8 8 9 9 9 9 9 9 9 10 10 9 10 10 10 9 8 8 8 8
17 18 16 15 16 17 18 18 19 19 19 18 17 17 17 16 15 14 14 13 12 11 11 10 10 10 10 9 9 9 9 9 8 8 9 9 9 9 9 9 9 9 9 9 9 9 9 9 8
16 16 15 15 15 17 18 18 18 18 18 18 17 17 17 17 16 15 14 13 12 12 11 11 10 10 10 9 9 9 9 9 9 9 9 9 8 8 8 8 8 8 9 9 9 8 8 8 8
15 15 15 15 16 16 17 19 18 18 18 18 17 17 17 17 16 15 14 13 13 12 11 10 10 9 9 9 9 9 8 8 9 9 9 8 8 7 7 8 8 7 7 7 7 7 7 7 7
15 14 13 14 15 16 17 18 18 17 18 18 18 17 17 16 16 15 14 14 13 12 11 10 10 9 9 9 9 9 8 8 8 9 8 8 7 6 7 7 7 7 6 7 7 7 7 7 7
13 12 12 13 14 15 16 17 17 17 17 17 17 17 17 16 16 15 15 14 14 12 12 11 10 9 9 8 8 8 8 8 8 8 9 8 7 7 8 7 7 7 6 6 7 6 6 6 7
11 11 11 12 13 14 15 16 17 18 18 17 17 17 17 16 16 15 15 14 14 13 12 11 10 10 9 8 8 8 8 8 8 8 8 8 7 8 8 7 8 7 6 6 6 6 6 6 6
9 9 9 10 11 13 14 15 16 18 18 17 17 16 16 16 16 15 14 14 14 14 13 12 11 9 9 9 9 8 8 8 8 8 7 7 7 6 6 6 6 6 7 7 6 6 6 5 5
7 7 7 9 10 11 13 14 15 16 17 17 17 16 16 16 16 14 14 14 14 14 13 12 11 11 10 9 8 8 8 8 7 7 7 7 6 7 7 7 6 6 6 6 6 6 5 4 4
4 5 6 7 8 10 11 12 13 14 16 17 16 16 16 15 15 14 13 13 13 13 13 12 13 13 12 11 10 9 8 8 7 7 6 6 6 6 7 6 6 6 6 6 5 5 5 4 4
2 3 4 5 6 7 9 10 11 12 14 15 15 15 15 15 14 13 13 13 13 13 13 13 12 12 12 12 11 10 10 9 7 7 6 6 6 7 7 6 6 6 5 5 5 4 4 3 3
2 1 1 2 3 5 7 8 9 10 12 14 14 14 14 14 13 13 12 12 12 12 12 12 12 12 12 11 10 9 9 9 8 7 7 7 7 7 7 7 6 5 4 5 4 3 2 2 2
4 2 2 1 1 2 5 6 7 8 10 12 13 13 13 13 12 12 12 11 11 11 11 11 11 11 11 11 11 10 9 8 8 7 6 6 6 7 6 6 6 5 5 4 3 3 2 1 1
7 5 4 2 0 1 2 4 5 6 8 10 12 12 12 12 12 11 12 11 11 11 11 10 10 10 10 10 10 10 9 8 7 6 5 5 5 6 6 5 5 4 4 3 2 1 0 0 0
10 8 7 5 3 1 1 2 4 5 6 8 10 10 11 11 11 10 10 11 11 10 10 9 10 10 9 9 9 8 8 7 6 5 5 3 4 4 4 4 4 3 3 2 2 2 1 1 2
13 11 9 8 5 4 3 2 2 3 5 7 8 9 9 9 9 9 9 10 10 10 9 9 8 8 8 8 8 8 7 7 6 5 4 3 2 2 2 3 3 3 3 2 2 3 3 3 3
16 13 12 10 7 6 5 4 3 3 3 5 7 7 8 9 8 8 9 9 9 10 9 8 8 7 7 7 7 7 7 6 6 5 4 3 3 3 3 3 3 4 4 4 4 4 4 4 5
18 17 15 13 10 9 7 6 6 5 4 5 5 6 7 7 7 7 7 8 9 9 8 8 8 7 6 6 6 6 6 6 5 5 5 4 4 4 3 4 4 4 5 5 6 6 6 5 5
21 19 17 15 13 12 10 8 9 7 6 5 5 5 6 7 7 6 7 7 8 8 8 7 7 7 7 6 6 6 6 6 6 5 5 5 5 4 4 4 5 5 6 7 8 7 7 7 7
24 21 19 17 15 15 13 11 10 9 7 6 6 6 6 6 6 6 6 7 7 8 8 7 6 6 6 6 7 7 7 7 7 6 6 5 5 5 5 5 6 6 7 8 7 7 8 8 8
25 23 20 19 18 17 16 15 12 11 9 8 7 7 6 6 6 7 7 7 7 8 8 7 7 7 7 7 7 6 7 7 8 8 8 7 7 6 6 6 6 7 7 8 8 8 8 8 8
26 24 22 19 18 17 18 17 14 13 11 10 10 8 7 7 7 7 8 8 8 8 8 8 8 7 8 8 8 7 7 8 9 9 9 9 9 8 7 7 7 8 8 9 9 9 9 10 10
28 27 24 21 19 18 19 19 16 15 14 12 11 10 10 9 8 9 9 9 9 9 10 9 9 9 9 9 9 9 10 10 10 10 10 10 10 10 9 9 9 9 9 10 10 11 12 12 12
30 28 26 24 22 20 20 20 18 16 15 14 13 12 11 10 10 10 10 10 10 10 10 10 9 10 10 9 10 11 11 12 11 11 11 10 10 11 11 10 10 11 11 11 12 12 12 13 14
31 29 28 27 25 21 19 20 19 17 16 16 15 14 13 12 12 12 11 11 11 10 10 10 9 10 10 11 12 12 12 12 12 11 11 10 11 11 11 11 11 11 12 12 12 13 13 13 15
31 30 29 28 27 25 21 20 21 18 17 17 16 15 14 14 13 13 12 12 12 11 10 10 10 11 11 12 13 13 13 12 11 11 11 11 11 12 12 12 12 13 13 13 14 14 14 15 16

GEFSSGP_500_meanwind_258.txt.gz
Wind_Speed
20 21 20 20 21 16 13 13 12 12 12 12 12 11 11 11 11 10 9 8 8 8 7 6 6 6 5 5 6 6 6 6 6 6 6 7 7 8 9 9 9 9 9 8 8 8 8 8 8
20 20 21 21 15 12 12 12 12 12 12 12 12 12 12 12 12 11 10 9 8 8 8 7 6 6 5 5 5 6 6 6 6 6 6 7 8 8 8 8 9 9 9 9 9 8 8 7 7
21 21 20 17 12 11 12 12 12 12 12 12 12 12 12 12 12 11 10 9 9 8 8 7 6 6 6 5 5 5 6 6 6 7 7 7 8 8 8 7 8 9 9 8 8 8 7 7 6
21 21 19 13 11 12 12 12 12 13 12 13 13 13 13 13 13 12 10 9 9 9 9 7 7 6 6 5 5 5 5 6 7 7 7 7 7 7 7 8 7 7 8 8 8 8 7 7 6
21 21 15 13 12 11 11 11 12 13 13 13 13 14 14 13 13 12 11 10 9 10 9 8 6 6 6 6 6 6 6 6 6 6 6 7 7 7 7 7 7 6 7 7 7 7 6 6 6
21 17 11 11 11 11 12 13 13 13 13 13 14 14 14 14 13 12 12 11 11 10 9 8 7 6 6 7 7 7 7 7 7 7 7 6 7 7 7 6 6 6 7 7 7 7 6 6 5
17 14 10 10 10 11 11 13 14 14 14 14 14 14 14 14 14 13 12 12 12 11 10 8 8 7 7 7 7 7 7 7 7 7 7 7 7 8 8 7 7 6 7 7 7 6 5 6 6
14 11 9 9 9 11 11 12 13 14 15 14 14 14 14 14 14 13 12 12 12 11 10 8 9 8 7 7 7 7 7 7 7 7 7 7 6 7 8 7 7 6 6 6 6 6 6 7 6
11 9 9 7 9 10 11 12 13 14 14 14 15 15 14 14 14 14 13 12 12 11 11 9 8 8 8 7 8 7 7 7 6 6 6 6 6 6 6 6 7 7 6 6 6 6 5 6 5
8 8 8 6 8 9 11 12 12 14 14 14 14 14 15 15 14 14 14 13 12 12 11 10 9 9 9 8 8 7 7 7 6 6 6 6 6 6 6 5 6 5 5 5 6 5 5 5 5
5 6 7 6 7 9 11 12 12 14 15 15 15 14 15 15 15 15 15 14 13 13 12 11 10 10 9 8 8 8 7 7 6 6 6 6 6 6 6 5 5 5 5 5 5 5 5 5 5
4 5 5 5 7 8 9 11 12 14 15 15 15 15 15 16 15 15 15 14 13 13 12 11 10 9 9 8 8 7 7 7 6 6 5 5 6 6 6 5 4 5 6 6 5 5 4 5 4
2 3 4 5 7 8 9 10 13 14 14 15 15 15 15 15 15 15 15 14 13 12 13 12 11 10 9 8 8 7 7 7 7 7 6 5 5 6 6 5 4 4 5 5 5 5 5 4 4
2 1 2 4 6 8 8 10 12 14 14 14 14 15 15 15 15 15 15 15 14 13 13 13 12 10 9 9 8 8 8 8 8 7 7 6 6 5 5 5 5 4 4 5 4 4 4 3 2
2 1 2 3 5 6 7 9 10 12 14 14 14 15 15 15 15 15 14 15 14 14 13 12 11 10 9 9 9 9 8 8 8 7 7 7 7 6 5 5 5 5 5 4 4 4 4 4 3
2 1 2 3 4 6 5 7 9 11 13 14 14 14 15 15 15 15 14 14 14 14 13 12 11 10 9 9 9 9 9 9 8 7 7 7 6 6 5 5 5 5 4 4 4 3 3 3 2
4 4 4 5 4 4 6 8 9 10 12 13 13 14 14 14 14 14 14 14 13 14 14 12 12 11 10 10 9 9 10 10 9 8 7 6 6 6 5 5 4 4 4 3 3 4 3 2 2
7 6 6 6 5 3 4 8 9 8 10 12 13 13 13 13 14 13 13 13 13 13 13 13 12 11 11 10 10 10 10 10 9 8 7 7 6 6 5 5 5 4 4 3 3 4 3 3 2
9 8 8 8 7 6 4 7 9 8 9 10 12 12 12 13 13 13 12 12 12 12 12 12 12 12 12 11 10 10 10 10 9 8 7 7 6 6 6 5 5 5 4 4 4 4 4 4 4
11 9 8 9 10 7 4 6 9 7 9 10 11 11 12 12 12 13 13 12 12 12 11 11 11 11 11 11 11 11 11 10 10 9 8 8 7 7 6 6 5 5 5 4 4 5 5 6 6
14 12 10 11 11 7 5 7 10 8 9 9 10 10 10 11 12 12 12 12 11 11 11 10 10 10 10 10 10 10 10 10 10 9 8 7 7 7 6 6 6 6 6 6 6 6 6 6 7
16 14 12 11 11 9 8 10 13 10 7 8 8 9 9 10 11 11 10 11 11 11 10 9 9 9 9 9 9 10 9 9 9 9 8 8 7 7 6 6 6 7 7 7 7 7 8 8 8
18 15 14 13 12 11 10 11 14 13 11 9 7 7 8 9 10 10 10 10 10 10 10 10 9 8 8 9 9 9 9 9 9 9 9 8 8 8 8 7 7 8 8 8 8 8 9 9 10
20 18 15 14 13 15 12 12 15 15 13 11 7 7 8 8 8 9 9 9 10 10 9 9 10 10 9 9 9 9 10 10 9 9 9 9 9 9 9 8 8 9 9 10 10 9 10 10 10
22 19 17 16 15 15 13 15 17 16 14 12 10 8 8 8 8 8 9 9 9 9 9 9 9 9 10 10 10 10 10 10 10 11 10 11 11 11 10 10 10 10 10 11 11 11 11 11 11
24 22 20 18 14 12 14 17 17 18 17 15 13 11 10 9 9 9 9 9 9 9 9 9 9 9 9 10 10 10 10 11 11 12 12 12 12 12 12 11 11 10 10 10 11 11 11 11 11
24 24 21 19 17 16 16 18 18 18 17 16 14 11 11 12 11 10 10 9 9 9 9 9 9 9 10 10 11 10 10 10 11 12 13 14 13 12 12 11 11 11 11 11 11 12 12 12 13
26 23 22 22 20 19 18 18 18 18 17 17 16 13 12 12 12 12 12 11 10 9 10 10 9 9 10 10 11 12 11 11 12 13 13 13 13 13 12 11 12 12 13 13 14 14 14 14 14
26 26 25 22 22 20 18 17 17 19 18 17 16 15 15 14 13 14 13 12 11 11 10 11 10 10 10 11 11 12 12 12 13 13 13 13 13 13 13 13 13 14 14 15 15 16 16 16 16
25 26 26 26 26 23 20 20 19 19 19 18 18 17 17 15 14 14 14 14 13 11 11 11 11 11 12 12 12 13 13 13 13 13 13 14 14 14 14 15 15 16 16 17 17 18 17 17 17

GEFSSGP_500_meanwind_264.txt.gz
Wind_Speed
20 19 19 18 19 19 19 20 19 19 17 17 16 15 14 13 11 10 9 8 8 8 7 7 6 5 5 6 6 6 6 6 6 6 6 6 7 7 7 7 8 8 8 9 10 10 10 10 9
20 19 19 19 20 20 20 20 19 19 17 17 16 15 13 12 11 10 10 9 8 8 8 7 5 5 5 5 6 6 6 6 6 6 6 7 8 7 7 7 8 8 8 9 9 9 10 9 9
18 19 19 20 20 21 21 20 19 18 17 17 16 15 13 12 12 11 10 9 8 8 7 7 6 6 6 6 5 5 6 6 6 6 6 7 8 8 7 8 8 8 9 9 8 9 9 9 8
16 18 19 20 20 20 21 21 20 19 18 17 16 15 14 13 13 12 11 10 9 8 8 8 7 7 6 6 6 6 6 7 6 6 6 7 8 7 7 8 9 9 9 8 8 9 9 8 8
15 17 18 19 19 20 21 21 20 19 18 18 17 16 15 14 14 13 13 12 10 10 9 9 9 8 7 7 7 8 7 7 7 7 7 8 8 7 8 9 10 9 8 8 7 8 8 7 7
14 15 16 18 18 19 19 20 20 19 18 18 17 17 17 16 15 14 14 14 12 12 11 9 9 9 9 8 8 8 8 8 8 8 8 7 8 8 8 8 8 9 9 8 7 7 8 7 6
12 13 15 16 16 17 18 20 19 19 18 18 18 17 18 17 16 15 14 15 14 13 12 11 11 10 9 9 9 8 9 9 9 8 8 8 8 8 8 8 8 8 8 7 7 7 7 7 6
12 12 14 15 15 17 19 19 19 19 18 18 18 18 18 17 17 15 15 14 14 14 13 12 11 11 10 9 9 8 8 8 8 7 8 8 7 7 7 7 7 7 7 7 6 7 7 7 6
12 11 12 15 16 17 18 19 19 18 18 19 19 19 18 18 17 16 16 15 14 14 13 12 12 11 11 10 9 8 8 8 7 8 8 8 7 7 7 6 6 6 7 7 6 6 6 6 6
9 11 12 14 16 17 18 18 19 18 18 18 18 18 18 17 16 16 17 15 14 14 13 13 12 12 11 11 10 9 8 8 8 8 8 8 8 7 7 6 6 7 7 6 6 7 6 5 6
8 8 11 13 15 17 18 19 18 18 18 19 18 18 17 17 16 16 16 16 15 14 13 12 12 12 12 10 9 9 9 8 8 8 8 8 8 8 8 7 6 6 6 6 5 5 5 5 5
7 8 11 12 15 16 17 18 18 18 18 18 18 18 17 17 16 15 15 16 16 15 14 13 11 11 11 11 10 9 8 8 7 7 7 8 8 8 7 7 6 6 6 6 5 5 5 5 4
6 8 9 10 12 14 16 17 18 18 18 18 18 18 17 17 16 16 16 17 16 16 15 14 13 12 12 12 11 10 9 8 8 7 7 7 7 8 7 6 6 6 6 6 6 5 4 4 3
6 4 6 8 9 11 13 15 16 17 18 18 18 17 17 17 17 16 16 16 16 16 15 14 14 13 12 12 12 11 9 8 7 7 6 6 7 7 7 7 6 6 6 6 5 4 4 4 3
5 3 3 5 7 10 11 12 14 15 17 17 17 17 17 17 16 16 16 16 15 15 15 14 14 14 13 13 13 13 11 10 8 7 8 7 7 6 7 6 6 6 5 5 4 4 4 3 3
6 2 1 2 5 8 10 12 13 14 15 16 16 16 16 16 16 16 16 15 15 15 14 13 13 13 13 13 12 13 12 11 10 9 8 8 7 6 6 6 6 5 4 4 3 3 3 3 2
5 2 2 1 5 7 9 10 12 13 14 15 16 15 15 15 15 15 16 16 15 14 14 13 13 13 13 13 12 12 11 11 10 9 9 8 7 6 6 5 5 4 4 3 2 1 2 2 2
6 3 1 1 4 7 8 10 10 11 12 13 14 14 14 14 14 14 14 15 15 14 14 13 13 13 13 13 12 11 11 10 10 9 9 8 7 7 5 6 5 4 4 3 2 2 2 2 2
8 6 3 2 4 6 7 9 8 9 10 11 11 12 13 13 13 13 13 13 13 13 14 13 13 12 12 12 12 11 10 10 9 8 8 7 6 6 5 4 5 4 3 3 3 3 3 3 3
11 8 5 4 5 6 6 7 7 7 8 9 9 10 11 11 12 12 11 12 12 12 12 12 12 12 11 11 11 10 10 9 8 8 8 7 7 6 5 4 4 5 4 4 3 3 4 4 4
13 11 8 6 6 6 7 8 7 6 6 7 7 8 8 9 11 12 12 11 11 11 11 11 10 10 10 10 10 10 10 10 9 9 8 8 7 7 6 6 5 5 4 4 4 5 5 5 6
15 13 11 10 10 9 9 9 8 7 6 7 7 7 8 8 10 11 11 11 10 9 9 10 10 9 9 9 9 9 10 9 9 8 7 7 7 6 5 5 5 6 5 5 5 5 6 6 7
17 16 14 13 13 11 11 10 9 9 8 8 9 7 7 7 8 10 10 10 10 9 8 8 9 9 9 9 9 9 9 8 8 7 7 7 6 6 5 5 5 6 6 6 6 6 6 7 7
19 19 17 17 15 13 12 12 10 9 7 8 9 7 6 7 7 8 8 8 8 8 8 7 8 8 8 8 8 8 8 8 7 7 7 7 6 6 6 5 6 6 6 6 6 7 8 8 8
23 22 21 20 18 16 13 13 10 9 8 8 8 6 7 6 5 6 7 7 8 8 7 6 7 8 8 8 8 7 8 8 8 7 7 7 6 6 7 6 6 7 7 7 7 8 8 8 8
26 25 24 23 21 18 16 15 12 9 9 10 8 7 7 5 5 5 5 6 6 7 7 7 7 7 8 8 8 7 8 8 8 8 7 8 7 7 7 7 7 7 8 8 8 9 9 10 10
26 27 25 24 23 21 18 16 13 12 11 12 10 8 7 6 5 5 6 6 6 7 8 8 8 7 7 8 8 7 8 8 8 8 8 8 8 7 7 7 7 8 8 9 9 10 11 11 12
26 25 27 27 25 24 22 19 16 14 12 13 12 10 8 7 6 6 6 7 8 8 8 8 8 8 8 8 9 8 8 8 8 9 9 9 8 8 8 9 9 9 10 11 11 12 12 13 13
27 28 28 28 28 26 25 21 16 15 14 13 12 11 9 7 7 6 7 8 8 9 9 8 8 8 8 8 9 9 8 9 9 9 9 9 9 10 10 10 11 11 11 12 12 13 14 14 15
27 27 28 29 29 28 26 23 18 16 14 13 14 14 11 9 8 8 8 9 10 10 9 9 9 9 8 9 10 10 9 9 10 10 10 10 11 11 12 12 12 12 13 13 14 15 16 16 16

GEFSSGP_500_meanwind_270.txt.gz
Wind_Speed
21 21 20 19 19 18 19 20 20 19 18 17 16 14 13 13 12 11 10 9 8 7 7 6 6 6 6 7 7 7 7 7 6 6 7 8 8 7 8 8 8 8 8 9 9 9 9 9 8
20 20 19 19 19 19 19 20 20 19 18 17 16 15 14 13 13 12 11 10 8 7 7 7 6 6 6 7 7 7 7 7 7 7 7 7 8 8 8 8 8 8 9 9 8 9 9 8 8
20 19 19 19 19 20 20 20 20 20 19 18 17 15 14 14 13 13 12 11 9 8 7 7 7 6 6 7 7 7 7 7 7 6 7 7 8 8 8 8 8 8 9 9 9 9 9 8 8
19 19 19 19 20 20 21 20 20 20 18 18 17 15 14 14 13 13 12 10 9 8 8 7 7 7 7 8 9 8 8 8 8 7 7 7 8 8 8 8 8 8 8 8 9 10 9 8 8
18 18 19 18 19 20 21 20 20 20 19 17 17 16 15 14 13 12 11 10 10 9 9 8 8 9 9 9 9 9 8 8 8 7 7 7 7 7 7 7 7 7 8 7 8 8 8 8 8
17 18 18 19 20 20 20 20 20 20 19 18 16 15 15 14 13 12 11 12 12 11 10 9 10 10 9 9 9 9 9 8 8 7 7 7 7 7 8 7 7 7 6 6 7 8 8 8 7
16 17 18 19 20 21 21 20 20 20 19 18 17 16 15 15 14 13 12 12 12 12 12 11 11 10 10 10 10 9 9 9 8 8 8 8 7 8 8 8 7 7 6 6 6 7 8 7 7
16 15 17 19 20 21 21 21 20 20 19 18 18 17 16 16 15 14 13 13 13 13 13 13 12 11 10 11 10 9 9 8 8 8 8 8 8 8 8 8 8 6 6 6 6 7 7 7 6
15 14 15 18 19 21 21 21 20 20 19 18 18 17 16 16 16 14 14 13 13 14 13 13 12 11 10 10 10 9 9 8 8 8 8 8 8 8 8 9 8 7 6 6 5 6 6 5 5
13 13 14 17 18 20 20 20 20 20 19 18 17 17 16 16 16 15 15 14 14 14 14 13 13 12 11 10 9 9 8 9 8 8 8 8 8 8 8 8 7 7 6 6 6 5 5 4 4
10 11 13 15 17 18 19 20 20 20 19 19 18 16 16 16 16 16 15 14 14 14 14 13 13 12 11 10 9 8 9 9 8 8 8 8 8 8 8 7 7 6 6 6 6 5 4 4 4
7 9 11 13 15 16 18 19 19 20 20 19 18 17 16 16 16 16 15 15 15 14 14 13 12 12 11 11 10 9 8 8 8 8 8 8 8 7 7 7 6 6 6 6 5 5 4 4 4
4 7 9 11 14 15 16 17 18 19 19 19 18 17 16 16 15 15 15 15 14 14 14 13 12 11 10 10 10 9 8 8 8 8 7 7 7 6 6 6 5 5 5 4 4 4 4 3 3
2 5 8 10 12 13 15 16 16 18 19 19 18 17 16 16 15 15 15 15 14 14 13 13 12 11 10 10 9 9 9 9 8 8 7 8 7 6 6 5 4 3 3 3 3 3 3 3 2
1 3 6 8 10 12 13 14 15 17 18 18 17 17 16 15 14 14 14 14 14 13 12 12 12 12 11 10 10 9 9 9 8 7 7 8 7 6 6 5 4 3 2 2 2 3 3 2 1
2 2 4 6 9 10 11 13 13 15 17 17 17 16 16 15 14 14 13 13 13 13 12 12 12 12 12 11 11 10 9 9 9 8 7 7 7 6 4 4 2 1 1 1 1 1 1 1 1
4 2 1 4 6 9 10 11 11 13 15 16 16 15 15 15 13 13 13 13 13 13 12 12 11 11 12 12 11 10 10 10 9 9 8 7 6 5 5 4 2 2 2 2 2 2 2 2 2
7 5 2 1 3 5 7 9 9 11 13 14 14 13 13 13 13 13 13 12 12 13 12 11 11 10 11 11 10 10 10 10 9 8 7 7 6 5 4 3 3 2 2 2 1 1 2 2 2
10 8 6 3 1 1 4 6 7 8 11 12 12 12 12 12 12 12 12 12 12 12 12 11 10 10 10 10 9 9 9 9 8 7 6 6 6 5 5 4 3 3 3 2 2 2 3 3 3
13 11 9 7 5 2 1 2 4 6 8 9 10 11 10 10 10 10 10 11 12 12 11 11 11 11 10 9 9 9 8 8 8 8 6 6 5 5 5 5 4 4 4 4 3 4 4 5 5
15 14 11 9 7 4 2 1 2 3 5 6 8 9 10 10 9 10 9 10 10 11 11 10 10 11 10 9 9 8 8 7 7 7 7 6 6 5 5 5 5 5 5 5 5 5 5 5 5
17 15 14 12 11 8 5 4 2 3 3 5 6 7 8 8 8 9 8 8 8 9 9 10 10 10 10 9 9 8 7 7 7 7 7 6 7 6 5 5 6 6 6 6 6 6 6 6 7
19 18 16 15 14 12 9 7 4 3 3 4 5 6 7 7 6 7 8 7 7 8 9 9 9 9 10 9 9 8 7 6 6 7 6 6 6 6 6 6 6 6 6 6 6 6 7 7 8
22 21 19 18 18 16 12 10 7 5 5 5 5 5 6 6 6 6 7 7 7 8 8 8 8 8 9 9 9 8 8 7 7 7 7 6 6 6 6 6 5 6 6 6 7 7 7 8 9
25 24 23 22 21 18 15 13 9 7 7 7 7 6 6 5 5 4 5 5 6 6 7 7 7 8 8 8 8 8 8 8 7 7 7 6 5 5 6 6 6 7 7 7 7 8 8 9 9
28 26 25 24 22 20 18 16 12 10 9 9 8 7 6 6 5 4 4 4 5 5 6 6 6 7 7 7 7 7 7 7 7 7 6 5 5 6 6 6 7 7 8 8 8 9 9 10 11
30 28 27 26 25 24 22 19 16 13 12 12 10 8 7 6 5 4 3 3 4 4 5 6 6 6 7 7 7 7 7 7 7 7 6 6 6 7 7 7 8 8 9 9 9 10 11 12 12
31 30 30 29 28 26 25 22 19 16 14 13 11 8 8 7 6 5 4 4 4 4 5 5 6 6 7 7 7 7 7 7 7 7 7 7 7 8 8 8 9 9 10 10 11 12 13 13 14
33 33 32 31 30 28 27 24 20 17 16 15 13 10 9 8 8 7 6 6 6 6 6 6 6 6 7 7 7 8 8 8 7 7 7 8 8 9 9 10 10 10 11 12 12 13 14 14 14
35 34 33 33 31 30 29 25 22 20 18 18 16 13 11 11 10 9 8 7 7 7 6 7 7 7 7 7 8 8 9 9 9 8 8 9 9 10 10 11 11 12 12 13 13 14 14 15 16

GEFSSGP_500_meanwind_276.txt.gz
Wind_Speed
20 19 18 18 19 18 16 16 16 15 14 14 13 12 11 10 10 9 8 8 7 6 5 5 5 6 7 8 8 8 9 8 8 9 9 9 9 9 8 8 9 9 8 8 9 9 10 10 10
19 19 18 19 18 16 16 16 15 15 15 14 13 12 12 11 10 10 9 8 8 7 6 5 6 6 7 8 8 8 8 8 8 9 9 9 9 9 9 9 10 9 9 9 10 10 10 10 9
19 18 19 19 17 16 15 15 15 15 15 14 13 12 11 11 10 10 9 9 8 8 7 7 6 7 7 8 8 8 8 8 8 9 9 9 9 9 9 9 10 10 10 10 10 10 10 9 9
18 18 20 18 17 16 15 15 15 15 15 14 13 12 11 11 11 10 9 9 9 9 7 6 6 6 7 8 9 9 9 8 8 9 9 9 10 10 10 10 9 10 10 10 10 10 10 9 8
18 19 18 16 16 16 16 15 15 15 15 15 14 13 12 12 11 10 9 10 10 8 7 7 6 7 7 9 9 9 9 9 8 10 10 10 10 10 10 10 9 9 10 10 10 10 10 9 8
18 18 16 15 16 16 16 16 16 15 15 15 15 14 13 12 12 10 10 10 9 9 8 8 8 8 8 8 9 10 9 9 9 10 11 10 9 10 9 9 9 9 9 9 10 9 9 8 8
16 17 16 15 16 16 16 16 16 16 15 15 15 15 14 13 12 11 10 10 9 9 10 10 9 9 9 9 10 10 10 9 9 10 10 11 10 10 9 9 8 8 8 9 8 9 8 7 7
15 15 14 15 15 16 16 16 17 16 16 15 15 15 14 14 13 12 12 11 10 10 10 10 10 10 10 10 10 9 9 9 9 8 10 11 10 9 9 9 8 8 8 8 7 8 9 8 7
14 14 12 14 15 15 16 17 17 17 16 16 16 16 15 14 14 13 12 11 11 10 10 10 10 11 11 11 10 10 10 10 9 9 9 10 10 9 8 8 8 8 8 7 8 8 8 7 6
12 12 11 13 14 15 16 17 17 17 16 16 16 16 16 15 14 13 12 11 11 11 10 10 10 11 11 11 10 10 10 10 10 10 9 9 9 9 9 8 8 8 7 7 8 8 7 6 5
10 10 10 12 13 14 16 17 17 17 16 16 16 16 16 16 15 14 13 12 12 12 11 11 11 11 11 11 10 10 9 10 10 10 10 9 9 9 8 7 7 6 7 7 7 6 6 6 6
8 8 9 10 11 13 14 16 16 16 16 16 16 16 16 15 15 15 14 13 12 12 11 11 10 9 10 10 9 9 9 9 10 10 10 9 8 8 7 6 6 5 6 6 6 5 5 5 4
6 6 8 8 10 11 13 15 15 15 15 16 16 16 15 15 15 14 13 13 12 11 11 10 9 9 9 9 8 9 9 9 9 9 8 9 8 7 6 5 5 5 6 6 5 5 5 4 3
5 5 6 7 9 10 12 13 14 15 15 15 16 15 15 14 15 14 13 12 12 11 11 10 10 9 9 8 8 8 8 8 8 8 8 7 7 5 5 5 5 5 5 4 4 4 4 4 3
3 4 5 6 7 8 10 12 12 13 14 14 14 15 15 14 14 14 13 12 11 11 11 10 10 10 9 9 8 8 7 7 7 7 7 7 7 6 5 5 5 4 3 3 3 3 3 3 2
2 3 4 5 6 6 8 10 10 12 13 13 13 13 14 13 13 13 12 12 11 11 11 10 10 9 9 9 8 8 7 6 7 7 7 7 7 6 5 5 3 3 2 2 2 2 1 1 2
2 1 0 2 4 5 6 7 8 9 11 12 12 12 12 12 12 12 12 11 11 10 10 10 10 10 10 10 9 8 7 7 7 6 6 6 6 6 6 5 3 2 1 1 1 2 2 3 3
6 4 2 0 1 2 4 5 5 7 8 10 11 12 11 11 12 11 11 11 10 10 10 10 10 10 10 9 9 8 8 8 8 7 6 6 6 5 6 5 4 3 2 1 0 1 2 3 2
9 7 5 3 1 0 2 3 4 5 6 8 9 10 11 11 11 10 10 10 10 9 9 9 10 10 10 10 9 8 8 7 7 7 6 5 5 5 6 5 4 3 1 0 1 2 2 2 2
10 9 7 6 3 2 0 1 3 4 5 6 7 8 9 9 9 9 9 9 9 8 8 8 8 9 9 9 9 8 7 7 6 6 6 6 5 4 4 4 3 2 1 1 1 2 2 2 2
12 10 10 8 6 4 3 2 3 4 4 5 6 6 7 8 8 8 7 8 8 8 7 7 7 8 8 8 8 8 7 6 6 5 5 5 5 5 5 4 3 3 2 2 2 3 3 3 3
14 12 12 10 8 6 5 4 5 4 4 4 4 5 6 6 6 6 6 6 7 7 7 7 7 7 8 7 7 7 7 6 6 5 5 5 5 4 4 4 4 4 3 3 3 4 4 4 4
17 15 13 12 10 9 8 6 6 5 3 4 4 4 4 5 5 5 5 6 6 6 6 6 6 6 7 6 6 6 6 6 5 5 5 5 4 4 4 4 4 4 4 4 4 4 5 6 6
19 18 16 14 12 12 11 8 7 6 4 4 4 4 4 5 5 4 4 5 5 5 5 6 6 5 6 6 5 5 5 4 4 4 4 4 4 4 4 4 4 4 5 5 6 6 7 7 7
22 19 17 16 15 15 13 11 9 8 6 5 4 4 4 4 4 4 4 4 4 4 4 4 4 4 4 5 4 4 4 4 3 3 4 4 4 5 5 5 5 5 6 6 7 8 8 8 9
24 22 21 18 16 16 16 14 11 10 8 7 6 5 5 4 4 4 5 4 4 4 4 4 4 4 5 5 4 4 4 4 4 4 4 4 5 5 6 6 5 6 7 7 8 9 9 10 10
26 25 23 21 19 18 17 15 13 12 10 9 8 7 6 6 5 5 5 4 4 4 4 4 4 5 5 5 5 5 4 5 5 5 5 5 5 6 6 7 7 7 8 8 9 10 10 11 12
28 26 25 24 22 20 19 17 15 14 12 11 10 10 9 8 7 7 6 6 5 5 5 5 5 6 6 6 6 6 6 6 6 6 6 6 6 7 8 8 8 8 9 9 9 10 12 12 13
29 28 27 26 24 21 20 19 18 16 15 14 13 12 11 11 10 9 9 8 8 7 6 6 6 7 7 7 7 7 7 7 7 7 7 7 7 8 8 8 9 10 10 10 11 11 13 13 14
30 29 28 27 27 25 23 21 20 19 17 16 16 15 14 14 13 12 11 11 10 10 9 8 8 8 9 9 8 8 7 7 8 8 8 8 8 8 9 10 10 11 11 12 12 13 13 14 14

GEFSSGP_500_meanwind_282.txt.gz
Wind_Speed
18 18 18 18 19 16 12 10 9 9 9 8 8 7 7 7 6 7 5 4 4 2 2 2 2 3 3 4 4 5 5 5 6 6 6 6 6 6 5 6 5 5 5 5 5 6 8 9 8
18 18 19 18 16 12 11 10 10 10 10 9 9 8 8 8 7 7 6 4 4 4 4 3 3 3 3 4 4 5 5 6 6 6 6 6 6 6 5 6 6 5 5 5 7 8 9 10 9
18 18 19 17 13 11 11 11 11 10 11 10 10 9 9 8 8 8 7 5 5 5 5 4 4 4 4 5 5 5 6 6 6 6 6 6 5 6 6 7 6 7 6 7 7 8 9 8 7
17 18 18 15 12 11 12 12 11 11 11 10 10 10 9 9 9 8 7 6 5 6 5 5 4 4 4 5 5 5 6 6 6 6 6 6 5 6 6 7 6 7 7 7 7 8 8 7 7
16 18 17 13 12 12 12 12 12 11 11 11 11 11 10 9 9 8 7 7 7 6 6 6 5 4 4 5 5 5 6 6 6 6 6 6 5 5 5 6 5 6 6 7 7 7 7 7 7
18 17 14 11 12 12 12 12 12 11 11 11 11 11 11 9 9 8 8 8 8 7 7 6 6 5 5 5 6 6 6 6 6 6 6 6 6 6 6 5 5 6 6 6 6 6 6 7 6
16 16 14 10 11 11 12 12 12 11 12 12 11 11 11 10 9 8 8 8 8 8 8 8 7 6 6 6 6 6 5 5 6 6 6 6 6 6 6 5 6 6 5 6 6 6 6 6 6
14 14 11 10 11 12 13 12 11 11 12 12 12 12 11 11 10 9 9 8 8 9 8 9 8 8 7 6 6 6 5 6 7 6 7 7 6 6 6 6 5 6 5 6 6 5 5 4 4
12 11 9 9 11 11 12 12 12 12 12 12 12 12 13 12 11 10 10 10 9 10 10 10 9 9 8 7 7 6 6 6 6 6 7 7 6 6 6 5 4 4 4 5 5 4 5 4 4
9 10 9 10 10 11 11 12 12 12 13 13 13 13 14 13 12 11 11 11 11 11 10 10 10 10 9 8 7 6 7 6 7 7 6 6 6 6 6 5 4 3 4 4 4 4 4 4 3
7 8 8 10 10 10 10 12 12 12 13 13 13 14 15 14 14 13 13 13 12 12 11 10 10 9 9 8 7 7 7 6 5 5 5 5 5 5 5 4 3 3 3 4 4 5 5 4 3
5 6 7 8 9 10 10 10 11 12 13 13 14 14 14 16 16 15 14 13 12 12 11 10 10 9 8 7 7 8 7 5 5 4 4 5 5 5 4 4 3 3 3 4 4 5 5 4 3
3 4 5 9 9 10 10 10 12 13 13 14 14 14 14 15 15 15 14 13 12 11 11 10 9 9 8 8 7 6 6 5 5 4 4 4 4 4 3 2 2 2 2 3 3 3 3 2 2
2 3 5 8 9 9 9 9 12 13 13 13 13 14 14 14 15 15 14 13 12 11 10 10 9 8 8 8 7 6 5 5 5 4 4 4 4 3 2 2 1 1 1 2 3 2 1 1 1
1 3 3 6 10 9 9 9 10 11 11 12 13 13 13 14 14 14 14 13 12 12 11 10 9 8 7 8 7 7 6 6 6 6 5 4 4 3 2 2 1 1 1 2 1 2 1 2 3
0 1 2 5 7 8 8 7 8 10 10 11 12 13 13 13 13 14 14 13 12 12 11 11 10 8 8 8 7 7 7 7 7 6 6 5 4 4 3 2 1 0 1 1 1 1 1 3 3
1 1 2 3 5 6 6 7 7 9 10 10 10 11 12 12 13 13 13 13 12 12 12 11 11 9 9 9 9 8 8 7 7 6 5 4 4 4 3 3 2 1 0 1 2 2 2 3 4
3 2 3 3 4 5 5 6 7 8 9 10 11 11 11 12 12 12 12 13 12 12 11 11 10 9 8 8 8 8 7 7 7 7 6 5 4 4 4 3 3 3 2 2 3 3 4 4 4
6 5 5 5 4 4 5 7 7 7 8 9 9 10 10 10 10 11 11 12 12 12 12 11 11 10 9 8 8 8 7 7 6 6 6 5 5 5 4 4 4 4 4 4 4 4 4 5 5
9 7 7 6 5 4 5 6 7 6 7 8 8 8 9 9 9 10 10 10 11 11 11 11 10 10 9 8 8 8 8 7 7 6 6 6 5 5 6 5 5 4 5 5 5 5 5 5 6
12 10 9 9 6 5 7 7 8 7 7 8 8 8 8 8 8 8 9 10 10 10 10 11 10 9 8 8 8 7 8 7 6 6 6 6 6 5 5 5 5 6 6 6 5 6 6 5 6
13 11 10 9 8 6 6 8 10 9 7 8 7 7 7 8 8 7 7 8 9 9 10 10 10 9 8 8 8 7 7 7 6 6 5 6 6 5 5 5 6 6 6 6 6 6 6 7 7
15 12 11 10 9 9 8 9 10 10 9 8 8 6 7 7 7 7 6 7 8 8 9 10 10 9 9 8 8 8 8 7 7 6 6 6 6 6 5 6 6 6 6 6 6 7 7 8 8
16 14 13 11 11 12 10 11 11 9 9 8 8 7 6 6 6 7 7 6 7 7 8 9 9 9 9 9 8 8 8 8 7 7 7 6 5 5 5 6 6 6 6 7 7 8 8 9 9
18 16 14 13 15 14 11 12 13 12 11 9 8 8 7 6 6 7 7 6 6 6 7 8 8 9 9 8 8 8 8 8 8 7 7 7 7 6 6 6 6 7 7 8 8 9 10 10 10
20 19 18 16 14 12 11 12 13 14 13 12 10 10 8 8 8 8 8 7 6 6 6 7 7 8 8 8 8 8 8 8 8 8 8 7 7 8 8 8 8 8 8 9 10 10 10 11 11
22 21 18 17 15 15 14 13 17 17 14 13 13 12 10 10 9 9 8 8 7 7 7 7 7 8 8 9 9 9 8 8 8 8 8 8 8 8 8 8 9 9 9 10 10 11 11 12 12
23 21 19 19 18 18 16 16 16 17 16 15 15 15 12 11 11 11 10 9 9 8 8 8 7 8 8 9 8 8 9 8 8 9 9 9 9 8 8 9 9 9 10 11 12 12 12 12 13
23 22 22 22 20 19 18 17 16 17 17 17 16 17 15 14 13 13 13 11 11 10 10 9 9 9 9 9 9 9 9 9 9 9 9 9 9 9 9 9 10 10 11 12 13 14 14 14 14
24 24 23 24 23 22 20 20 17 16 17 18 19 18 17 15 15 15 15 13 12 12 12 11 10 10 10 10 10 10 10 10 10 10 10 10 10 10 9 10 11 12 12 13 13 14 15 15 15

GEFSSGP_500_meanwind_288.txt.gz
Wind_Speed
18 18 18 17 16 17 17 17 16 15 16 15 14 13 12 11 10 9 8 7 5 4 3 2 3 4 4 4 5 5 5 5 5 6 5 5 5 5 5 5 5 5 6 6 6 7 7 8 9
18 18 18 17 18 18 17 17 16 16 16 15 14 13 12 11 10 10 9 8 6 5 3 3 4 4 4 5 6 6 5 5 6 6 6 5 5 4 5 5 5 6 6 6 6 6 7 8 9
17 18 17 18 19 19 18 18 16 16 15 15 14 14 12 12 11 11 10 9 8 6 5 4 4 5 5 6 6 6 6 6 6 5 5 5 5 5 5 5 5 5 6 6 6 7 8 9 9
16 17 17 18 19 19 18 17 17 16 15 15 15 14 13 12 12 11 9 9 10 8 7 6 6 5 6 7 6 6 6 6 5 5 5 4 5 5 5 5 5 5 5 6 6 7 8 9 8
15 16 17 19 18 18 17 17 17 17 15 15 15 14 13 13 12 11 10 10 10 9 8 7 7 6 6 7 7 6 6 6 6 6 5 5 5 5 5 6 5 5 5 6 7 8 8 8 7
14 16 18 19 18 18 18 19 18 17 15 16 15 15 14 13 12 12 11 11 9 9 8 8 7 6 6 6 6 7 6 6 6 6 6 6 5 5 5 6 6 5 5 7 7 7 8 8 7
13 16 17 18 19 18 18 18 18 17 16 16 16 15 15 14 13 12 11 10 10 9 9 8 8 7 7 6 6 6 7 6 6 6 6 6 6 5 5 6 5 5 5 6 6 6 6 6 6
14 16 17 17 17 18 18 18 18 17 17 16 16 16 15 15 14 13 11 11 10 10 10 9 9 9 9 8 7 6 7 7 6 6 6 7 6 6 5 5 6 5 5 6 5 6 6 6 5
14 15 16 17 17 18 18 17 17 17 17 17 17 17 16 15 14 13 12 12 11 11 10 10 10 9 9 8 7 6 6 7 6 7 7 6 6 5 5 5 5 5 5 5 5 5 5 4 4
13 14 15 17 17 17 17 16 17 18 17 17 17 17 17 16 15 14 14 13 13 12 12 12 11 10 9 9 8 7 6 6 6 7 7 6 5 5 5 5 5 5 5 4 4 4 5 4 4
11 12 13 15 16 15 16 16 17 18 17 17 17 17 17 16 16 15 14 14 13 12 12 12 12 10 10 9 9 7 7 6 6 6 5 6 5 5 4 4 4 4 4 4 4 4 4 4 4
9 11 12 13 14 15 15 17 17 16 17 17 17 17 17 16 16 16 15 14 15 13 12 11 12 11 10 10 9 8 7 6 5 6 5 5 5 5 4 4 4 4 4 3 3 3 3 3 3
8 9 10 12 13 14 15 16 16 16 16 16 16 16 16 16 17 17 16 15 15 14 13 11 11 11 10 9 9 8 7 7 6 5 5 5 4 4 4 4 4 4 4 3 3 3 3 2 2
6 7 8 10 12 13 14 15 15 15 16 16 16 16 16 16 16 16 16 16 15 13 13 12 11 11 10 10 10 9 8 7 6 5 5 5 5 4 4 4 3 3 4 4 3 3 3 2 1
6 5 6 8 11 13 14 15 14 14 15 15 15 15 15 15 15 15 16 16 16 14 13 12 12 11 11 11 10 9 8 7 6 6 6 5 5 4 4 3 3 3 3 3 2 2 2 1 1
4 4 4 6 9 11 12 13 14 14 14 13 14 15 15 15 15 15 15 16 16 15 14 13 13 12 11 11 10 9 9 8 7 6 5 5 5 4 3 3 2 2 2 3 2 2 1 1 1
3 3 3 4 6 8 9 11 12 13 12 12 14 14 14 14 14 14 14 14 15 15 14 13 13 12 11 11 10 9 9 9 7 7 6 6 5 4 4 3 3 2 2 1 1 1 0 1 2
2 1 1 2 4 5 7 9 11 12 11 10 13 13 13 13 12 13 13 13 14 14 14 14 13 12 11 10 11 10 9 9 9 8 7 7 6 5 4 3 3 2 1 1 1 1 1 1 2
2 0 1 2 3 4 5 7 8 9 10 10 11 12 12 12 11 11 12 12 13 13 13 14 14 13 11 10 10 10 10 9 9 9 8 7 6 5 4 4 3 3 3 2 1 2 1 2 3
5 4 3 3 5 5 5 6 6 7 8 8 9 9 11 10 10 10 10 11 12 12 13 13 13 13 12 10 10 10 9 9 8 8 8 8 7 6 5 5 5 5 4 4 2 2 2 3 2
9 6 5 4 4 5 5 6 6 6 7 7 8 8 9 9 10 10 10 10 11 11 12 12 12 12 12 11 10 10 9 8 8 8 7 7 7 8 7 6 5 5 4 4 3 3 3 2 3
12 9 8 7 7 7 7 7 5 5 6 5 6 6 7 8 8 9 9 9 10 9 10 11 11 11 11 11 10 9 9 8 8 7 7 7 7 6 6 6 6 5 5 5 4 4 4 3 4
13 12 13 12 10 9 8 8 7 6 4 4 4 5 5 6 7 7 8 8 9 9 9 10 10 11 11 11 10 9 8 7 7 6 6 6 5 5 5 4 4 4 5 5 4 4 5 5 5
15 15 16 16 14 12 8 8 7 6 5 5 5 5 5 6 6 6 7 7 7 7 8 8 9 10 10 10 9 9 8 7 6 6 5 5 5 5 4 5 5 6 6 6 5 5 5 5 6
18 18 19 18 16 13 11 12 8 6 6 5 5 4 5 5 5 5 5 6 6 6 6 7 8 9 9 9 9 9 8 7 7 6 5 4 4 5 5 5 5 6 6 6 6 6 6 6 7
19 20 21 18 16 14 13 14 10 7 6 6 7 6 5 4 4 4 4 5 5 5 5 6 6 7 8 8 8 8 7 7 7 7 6 5 5 5 5 6 6 6 7 8 7 7 7 7 8
21 21 21 20 17 16 15 14 12 11 9 8 8 7 6 5 4 4 4 5 5 5 5 5 5 6 7 8 7 7 7 7 7 6 6 6 6 5 5 6 6 7 7 8 7 7 8 8 8
23 23 23 22 21 19 17 16 14 13 12 10 9 8 7 6 6 5 5 5 5 5 5 5 5 6 7 7 7 7 7 7 7 7 7 7 7 6 6 6 6 7 8 9 9 8 9 9 9
24 25 25 24 23 21 19 17 16 15 12 11 11 10 10 9 9 8 7 7 6 6 6 6 6 6 7 7 8 8 7 8 7 7 7 7 7 7 7 7 7 8 8 9 9 9 9 9 10
27 27 27 27 25 23 22 20 17 15 14 13 14 13 12 11 11 10 10 9 8 8 7 7 7 7 7 8 8 8 8 8 8 8 8 8 8 8 8 8 9 9 9 9 10 10 10 10 11

GEFSSGP_500_meanwind_294.txt.gz
Wind_Speed
17 17 17 17 17 17 17 17 16 16 15 14 12 11 10 10 10 8 7 6 4 4 4 4 4 4 5 6 6 7 7 6 5 5 4 4 5 5 5 6 5 5 4 4 5 5 5 7 8
16 16 17 17 17 17 17 16 17 17 16 15 14 13 11 11 11 10 8 7 6 4 4 5 5 5 6 6 6 6 6 6 5 5 5 5 5 5 5 5 5 5 4 4 5 5 6 6 7
16 15 16 17 17 18 18 17 17 17 16 15 15 14 13 12 12 11 10 8 7 5 5 6 6 7 7 7 7 6 6 6 6 5 5 5 6 6 5 5 5 4 4 4 5 6 6 6 6
15 15 16 17 18 18 18 18 19 18 16 16 15 14 14 13 12 12 11 10 8 7 6 6 7 7 7 7 7 8 8 7 6 6 6 6 6 6 5 5 4 4 4 4 5 6 6 6 5
15 15 16 17 18 18 19 20 20 18 17 17 16 14 14 13 12 12 12 11 10 9 8 8 8 7 7 7 8 8 8 7 7 7 7 7 6 5 5 5 4 4 3 4 4 5 6 6 6
16 15 16 17 17 17 18 19 19 18 17 16 16 15 14 13 12 11 11 11 10 9 9 9 8 8 8 8 8 8 7 7 8 7 7 7 6 6 5 5 4 4 4 4 4 5 6 7 7
16 16 17 17 18 18 18 18 19 18 17 16 16 15 14 14 12 12 11 11 11 10 9 9 9 9 9 9 8 7 7 7 7 7 7 7 6 6 5 4 4 4 4 4 3 3 5 8 7
15 15 17 17 18 18 18 19 18 17 16 16 15 15 14 14 13 12 11 12 11 10 10 10 10 10 10 9 8 7 7 7 7 7 7 6 6 6 5 4 4 4 4 4 4 4 5 6 6
14 14 16 17 18 18 18 19 18 17 16 16 15 15 14 13 12 12 12 12 11 10 11 12 11 10 10 9 8 7 7 6 6 6 6 6 6 5 5 4 4 4 4 4 4 5 5 5 4
12 13 15 16 17 18 18 19 18 17 16 16 17 17 15 14 13 12 12 12 12 12 12 12 11 10 9 9 8 7 7 7 6 5 5 5 5 5 5 4 4 4 4 4 4 4 4 4 4
10 12 13 15 16 18 18 18 18 17 16 16 17 17 16 15 14 13 12 13 14 13 13 12 11 10 9 8 8 7 6 6 5 5 4 5 4 4 4 4 5 4 4 4 4 3 3 3 3
9 10 11 13 14 15 16 17 17 16 16 16 16 16 16 16 14 13 13 13 13 13 12 12 11 10 10 9 8 7 6 6 5 5 4 4 4 4 4 4 5 4 4 4 3 3 3 3 3
9 10 10 11 12 13 14 15 15 15 15 15 14 14 15 16 15 14 13 13 13 13 12 12 11 10 9 8 8 8 7 6 6 5 4 4 4 4 4 4 4 4 4 3 2 2 2 3 3
7 9 10 10 11 12 13 14 14 14 14 14 13 13 14 14 14 13 13 12 12 12 12 12 11 10 9 8 8 7 7 7 7 6 5 4 4 4 4 4 3 3 4 3 3 2 2 3 3
3 5 7 8 10 11 11 13 14 13 13 13 12 12 13 13 13 13 13 12 12 13 13 12 11 11 10 9 8 8 8 8 7 7 6 5 4 4 4 3 3 3 3 3 3 2 2 3 2
0 3 4 6 7 9 10 11 12 12 12 12 11 12 12 13 12 12 12 12 12 12 12 12 11 11 10 10 10 10 9 8 7 7 7 6 5 4 3 3 3 2 2 2 2 2 3 3 3
1 1 3 4 6 7 8 9 10 11 11 11 11 11 12 12 12 11 12 12 12 12 12 12 11 11 10 9 9 9 9 8 7 7 7 6 5 4 3 3 3 2 2 1 1 1 3 4 4
3 1 2 3 3 5 6 7 8 9 10 10 10 10 11 11 11 11 11 12 11 12 12 11 11 10 10 9 9 9 9 8 7 7 6 6 5 3 3 3 2 1 1 1 0 1 2 3 4
5 3 1 1 1 2 3 5 7 7 8 8 9 9 10 10 10 10 10 10 11 11 11 11 10 9 9 9 9 9 8 8 7 7 7 6 5 4 4 3 2 2 1 1 1 1 1 2 3
8 6 4 3 2 1 1 3 4 5 5 6 7 7 8 9 9 9 10 10 10 10 10 10 10 10 9 8 8 8 8 8 7 7 7 6 5 5 4 3 3 2 2 1 1 1 1 2 3
11 9 7 6 6 4 3 2 3 4 3 4 5 5 6 6 7 8 8 9 9 9 9 9 10 9 9 8 8 8 8 7 7 6 6 5 5 4 4 3 3 3 3 2 2 2 2 3 3
14 12 11 9 9 7 6 4 4 4 4 4 3 3 4 5 5 6 7 7 7 8 8 8 8 9 8 8 7 7 7 7 6 5 5 4 4 4 4 4 3 4 3 2 2 3 3 4 4
17 15 14 13 11 10 8 7 6 5 5 4 3 2 2 3 4 4 5 5 6 6 6 7 7 9 8 8 6 6 6 6 6 5 5 4 4 4 4 4 4 4 3 3 3 3 4 4 4
20 18 17 16 14 13 11 10 7 6 6 5 4 4 3 2 2 2 3 4 5 5 5 5 6 7 8 8 7 6 5 5 5 5 5 4 4 4 4 4 5 5 4 4 4 4 4 5 5
21 20 18 18 17 16 13 13 9 8 7 6 5 5 4 3 2 1 2 3 4 4 4 4 6 6 7 8 7 7 5 4 4 4 4 4 4 4 4 4 4 5 5 5 5 5 5 5 6
23 22 21 20 18 17 16 15 11 9 8 7 6 6 5 4 3 2 2 1 2 3 3 3 4 5 6 6 7 7 6 5 4 3 3 3 3 4 4 5 5 6 5 6 7 7 6 6 6
26 24 22 22 21 21 19 17 13 11 11 10 8 7 6 5 5 4 3 2 2 2 2 2 3 4 5 5 6 6 6 5 4 3 3 4 4 5 5 5 6 6 6 7 7 7 7 7 7
27 25 25 24 24 23 22 19 15 13 12 11 10 8 8 7 7 6 5 4 4 3 3 3 3 4 5 5 5 6 5 5 5 5 5 5 6 7 7 7 7 7 7 7 7 7 7 8 8
28 27 26 25 25 25 24 21 17 15 14 12 11 10 10 9 9 9 8 7 6 6 5 5 5 5 5 5 6 6 5 5 5 6 6 6 7 8 8 8 8 8 8 8 7 8 8 9 9
28 27 27 27 26 25 25 22 19 17 16 15 14 13 12 12 12 12 11 10 8 8 7 6 6 6 6 6 6 6 6 6 7 7 7 7 8 7 8 8 8 8 8 8 8 8 9 10 11

GEFSSGP_500_meanwind_300.txt.gz
Wind_Speed
15 15 15 14 15 14 12 12 11 12 12 11 11 10 10 10 9 8 8 8 8 8 7 7 8 8 8 8 8 7 8 8 8 8 8 8 8 9 8 8 7 7 7 7 6 6 6 5 6
15 15 15 15 15 13 12 12 12 12 12 12 11 11 11 10 9 9 9 8 8 8 8 9 8 8 8 8 9 8 8 8 8 8 7 7 7 8 8 7 7 7 7 6 6 6 6 6 7
14 15 16 16 14 13 13 13 14 14 13 12 12 12 12 11 10 9 9 8 8 8 8 9 8 8 8 8 8 9 9 9 8 8 7 7 7 7 7 7 7 7 7 6 6 6 6 7 7
13 14 16 15 14 13 13 13 14 14 13 13 13 13 13 12 11 10 9 9 8 8 8 8 8 8 8 8 8 9 9 9 8 8 8 7 7 7 7 6 6 6 6 6 6 6 6 7 8
14 15 15 14 14 14 13 13 14 14 13 13 12 13 12 12 11 10 10 9 8 8 8 8 8 7 8 8 9 8 8 8 8 8 7 7 7 6 7 6 6 6 6 6 6 6 7 8 8
15 15 14 13 13 14 13 14 14 13 12 12 12 12 11 11 11 10 10 9 8 7 8 8 7 7 7 8 8 8 8 8 7 7 7 7 6 6 6 6 5 5 6 6 6 7 7 8 8
15 15 15 14 14 14 14 14 14 13 13 12 12 12 12 11 11 10 9 8 8 7 7 7 7 8 8 8 8 7 7 7 7 7 7 7 7 6 6 5 5 4 5 5 7 8 8 8 8
14 14 13 13 14 14 14 15 15 14 14 14 14 13 12 11 10 10 9 8 8 7 7 8 8 9 8 8 8 7 7 7 7 7 7 7 6 6 5 5 4 4 4 4 5 7 9 8 7
13 12 12 13 14 14 14 15 15 15 14 14 14 13 11 10 10 9 9 8 8 8 8 8 9 9 8 8 8 7 6 6 7 7 7 6 6 5 5 5 5 5 4 4 4 6 9 8 6
12 11 12 13 13 13 14 15 15 15 14 14 13 14 12 10 10 10 9 9 9 9 9 9 9 8 8 8 7 7 6 6 6 6 6 5 5 5 5 5 5 4 4 4 5 6 7 6 5
10 11 11 12 13 13 14 14 14 14 14 14 14 13 13 11 10 10 9 10 9 9 10 10 9 8 7 7 7 6 6 5 5 5 4 4 4 5 5 4 4 3 3 3 4 5 5 4 4
9 10 10 11 11 12 13 13 13 14 13 14 14 13 12 11 11 10 11 10 10 9 9 9 9 8 7 7 6 6 5 5 5 5 4 4 5 5 5 5 4 4 4 3 3 3 4 4 4
8 9 9 9 10 11 12 12 12 13 13 13 13 12 12 11 10 10 10 10 9 9 9 8 8 8 7 7 6 6 5 5 5 5 6 5 5 5 5 5 5 4 3 3 2 2 3 4 4
7 7 8 9 9 10 10 11 11 12 12 12 12 12 12 11 10 9 9 9 9 8 8 8 7 7 7 6 6 6 6 6 6 6 6 6 5 5 5 5 5 4 3 3 2 1 2 2 3
5 6 7 7 8 8 9 10 10 10 10 11 11 10 11 10 10 10 10 8 8 8 8 8 7 7 6 6 6 7 7 7 7 7 7 6 5 4 4 4 4 3 2 2 2 2 2 1 2
3 4 4 5 7 7 7 8 9 9 9 9 10 9 9 9 9 9 10 9 8 7 7 7 8 7 6 6 6 6 7 7 7 7 7 6 5 5 4 4 3 3 1 1 1 1 1 2 2
2 2 1 2 4 5 6 6 8 8 8 8 8 8 8 8 8 9 9 9 8 8 7 7 7 6 6 6 6 6 6 6 6 6 6 5 5 4 4 3 3 2 2 2 2 1 2 1 2
2 1 1 0 2 3 4 5 6 7 6 7 7 7 7 7 7 7 8 8 8 7 7 7 6 6 6 6 5 5 5 6 5 6 5 4 3 3 3 3 2 2 2 2 2 2 2 2 3
5 3 2 2 1 2 3 3 4 5 6 6 6 6 6 7 6 6 6 7 7 7 7 7 6 6 5 5 5 5 5 5 5 5 5 4 3 2 2 2 1 1 1 1 2 3 3 4 4
7 5 4 3 2 1 2 3 3 5 5 5 5 5 5 6 5 5 5 6 6 7 6 6 6 6 5 5 5 4 4 4 4 4 3 3 2 2 2 2 1 1 1 1 2 3 4 4 5
9 8 6 5 3 3 2 3 4 5 5 5 4 4 4 4 4 4 4 5 6 6 6 6 5 5 5 5 5 5 4 4 3 3 3 3 2 1 1 1 1 2 2 2 2 3 4 4 4
11 10 9 7 5 5 3 2 5 5 5 5 5 4 4 3 3 3 4 4 5 5 5 5 5 5 5 5 4 4 4 4 4 3 3 2 2 1 1 1 2 2 3 3 3 4 4 4 4
14 13 10 9 8 6 5 4 5 6 5 5 5 5 4 3 3 3 3 4 4 4 4 4 4 4 4 4 3 3 3 4 4 3 3 2 1 1 1 2 2 3 4 4 4 4 4 4 4
16 13 12 10 8 9 7 5 6 7 6 5 5 5 4 4 3 3 3 4 4 3 3 4 4 3 3 3 3 3 3 3 3 3 2 2 1 1 1 2 3 3 4 5 4 4 4 4 5
17 14 12 11 11 11 10 8 7 7 6 6 6 6 5 5 4 4 4 4 3 2 2 3 3 3 3 3 3 3 2 2 2 2 2 2 3 2 2 3 3 3 4 4 4 5 5 5 5
18 16 15 14 12 12 13 11 9 8 8 7 7 7 6 6 5 6 6 6 4 3 3 3 3 3 3 2 2 2 2 2 2 2 3 3 3 3 3 4 4 4 5 5 5 5 6 7 7
20 18 16 16 15 13 14 13 12 10 9 8 8 8 7 7 6 6 7 7 6 5 4 4 4 3 3 3 2 2 2 2 3 3 4 4 4 5 5 5 5 6 6 6 7 7 7 8 8
22 20 19 18 17 16 16 15 13 13 12 11 10 9 9 9 8 8 8 8 7 7 6 5 5 5 5 4 4 4 4 4 4 4 5 5 6 6 6 7 7 7 7 7 7 7 8 8 9
22 21 20 20 20 18 17 17 17 16 14 13 12 12 11 11 10 10 9 9 8 8 8 7 7 7 7 6 6 6 6 6 6 6 6 7 7 7 7 7 7 8 8 9 9 9 8 9 9
23 23 22 21 21 20 19 18 19 17 16 15 14 13 13 13 12 12 11 11 10 10 10 9 9 9 9 9 8 8 8 7 7 8 8 8 8 7 7 7 8 8 9 9 9 9 10 11 11

GEFSSGP_500_meanwind_306.txt.gz
Wind_Speed
17 17 17 17 18 14 11 10 9 8 7 6 5 4 4 3 2 2 3 3 3 4 3 3 4 4 5 5 5 5 5 5 5 5 5 5 5 6 7 6 6 6 6 6 5 5 5 5 4
17 15 17 18 16 11 10 10 9 7 7 6 5 4 4 4 3 2 3 3 3 3 3 4 4 5 5 5 5 5 5 4 3 3 4 4 5 6 7 6 5 5 5 5 5 4 4 4 3
16 16 19 16 12 10 9 9 10 8 8 7 6 5 4 4 4 3 3 3 3 4 4 4 4 4 5 5 5 5 5 4 4 3 3 4 4 5 6 5 5 4 4 3 3 3 3 3 3
15 19 19 14 10 10 10 10 10 9 7 7 7 6 5 5 5 5 5 4 4 5 5 4 4 4 5 5 4 5 5 4 4 4 3 3 3 4 4 4 4 4 3 3 2 2 2 2 3
16 19 17 11 10 10 10 10 9 9 8 8 8 6 6 6 6 5 5 5 5 5 5 4 4 5 4 4 4 4 3 3 3 3 3 2 3 3 3 4 4 3 3 3 2 2 3 2 3
17 18 13 9 9 9 10 9 9 8 9 8 8 7 6 7 7 7 6 6 5 5 5 4 4 5 4 4 3 3 2 2 3 3 2 2 2 2 2 3 4 4 3 3 2 3 4 4 3
15 15 11 9 9 9 9 8 8 9 8 9 8 7 7 8 8 7 7 6 6 5 4 5 5 5 4 4 3 3 2 2 2 2 2 2 2 2 1 2 3 3 3 3 2 3 4 5 6
14 14 10 8 8 9 9 8 9 9 9 10 9 8 7 7 7 7 7 7 7 7 6 5 5 5 4 4 3 3 2 2 2 2 2 2 2 1 1 2 2 2 3 4 5 4 4 5 4
13 11 9 8 8 9 9 9 9 10 10 11 10 9 8 7 7 7 7 7 7 7 7 6 5 4 4 4 4 3 2 2 2 2 2 1 1 1 1 1 1 1 2 4 6 7 6 5 4
9 7 8 8 9 10 10 10 10 10 11 11 11 10 9 8 8 7 8 7 7 7 8 7 6 5 4 4 3 3 2 2 1 1 1 0 1 1 1 1 1 0 1 3 4 6 5 4 3
5 6 7 7 8 10 10 9 10 10 11 12 11 11 10 10 9 8 8 7 7 7 7 7 7 5 4 4 4 3 2 2 2 2 1 1 1 1 2 2 2 2 2 1 0 4 4 3 2
3 4 5 6 8 9 9 9 9 9 10 11 11 11 11 10 10 9 8 8 8 8 7 7 7 5 4 4 4 3 2 2 2 2 2 1 2 2 3 3 3 3 4 5 5 4 3 2 1
2 4 5 6 7 9 9 10 9 9 11 12 11 11 11 11 11 10 9 8 9 9 8 7 7 6 5 4 4 4 3 2 2 2 2 2 2 3 3 3 3 3 4 4 4 3 2 0 0
3 4 5 7 7 9 10 10 10 9 10 10 11 10 10 11 11 11 10 9 9 9 8 8 7 6 5 4 4 4 4 4 3 3 3 3 3 2 2 3 3 2 1 2 2 2 2 2 1
4 4 5 7 7 8 9 10 10 10 10 9 10 10 10 10 11 10 10 9 9 8 8 7 7 6 5 4 4 4 5 4 4 4 3 3 3 2 2 2 2 1 1 1 2 2 2 2 2
4 4 5 5 7 9 9 9 10 10 10 9 9 9 10 9 9 10 10 9 9 9 8 6 7 7 5 4 4 5 4 4 4 4 4 3 3 3 2 3 3 2 2 2 2 2 3 3 3
1 1 3 4 6 7 7 7 9 11 10 9 8 9 9 9 9 9 9 9 9 9 8 8 8 7 5 4 4 4 4 3 3 3 3 3 3 3 3 3 3 3 3 3 3 3 3 3 3
1 2 2 2 3 4 5 5 7 10 10 10 9 9 9 8 8 8 8 9 9 9 9 8 8 7 5 4 4 3 3 4 4 3 3 3 3 4 4 4 4 4 4 4 4 4 4 4 4
3 4 4 4 3 4 5 5 5 8 10 9 9 9 9 8 7 7 8 8 8 8 8 7 7 7 5 4 4 3 3 4 4 4 3 3 3 4 4 4 5 5 5 5 5 5 5 5 5
6 5 5 4 4 4 6 5 5 6 8 10 10 9 8 8 7 7 8 7 7 7 7 7 7 7 6 5 4 4 3 4 3 3 3 4 4 4 4 5 5 6 6 6 7 6 6 6 5
7 5 7 6 5 4 6 9 6 7 8 9 9 9 7 7 7 7 7 8 7 7 7 6 6 6 5 5 5 5 4 4 4 4 4 5 5 5 6 6 6 6 6 7 7 7 6 6 6
8 7 8 6 5 6 5 7 7 7 9 10 9 9 7 6 7 7 7 7 7 7 7 6 6 6 6 5 6 5 5 4 4 4 4 5 5 6 7 7 6 7 7 7 7 7 7 6 6
10 8 7 5 5 6 6 8 9 5 7 9 10 9 8 7 7 7 7 7 7 6 6 6 6 6 6 6 5 5 4 4 4 4 5 5 5 6 7 7 7 7 7 7 7 7 7 7 7
11 8 6 6 6 8 8 9 10 7 8 9 10 10 9 8 8 8 8 7 6 6 6 6 6 6 5 6 5 5 5 5 4 5 5 5 6 6 7 7 8 8 8 7 7 8 7 7 7
12 10 8 9 10 11 9 9 10 10 10 10 9 10 10 9 9 9 8 8 7 6 6 6 7 7 6 5 5 5 5 5 5 5 5 5 6 7 7 8 9 9 9 9 8 8 7 7 7
14 12 11 11 11 11 10 9 10 12 12 13 11 10 10 10 9 9 9 8 7 7 7 7 7 7 6 5 5 5 5 5 6 6 6 6 7 8 8 9 10 10 9 9 8 8 8 8 8
17 15 13 13 12 11 11 11 12 14 14 13 13 12 11 10 9 9 9 8 8 8 8 7 7 7 7 7 6 6 6 6 6 6 6 7 8 8 9 10 10 10 10 9 8 9 9 9 9
18 16 14 14 14 12 13 14 14 14 12 13 13 14 13 12 10 10 9 8 8 9 9 9 8 8 8 7 7 7 6 6 6 7 7 8 8 10 11 11 11 10 10 9 10 9 10 10 10
17 16 17 17 16 14 13 14 14 14 14 13 14 15 14 14 13 12 11 9 9 10 10 10 10 9 9 9 8 8 8 7 7 8 8 9 9 10 11 11 11 11 11 11 11 10 10 11 11
18 19 19 18 18 17 16 17 15 15 16 15 15 16 15 15 15 14 13 12 11 10 11 11 11 11 10 10 10 10 9 9 9 9 9 10 10 11 11 11 11 11 12 11 11 12 12 12 12

GEFSSGP_500_meanwind_312.txt.gz
Wind_Speed
16 16 15 15 16 17 18 18 17 14 13 12 11 10 10 8 7 6 4 4 5 5 5 5 6 6 6 6 6 5 5 6 5 5 5 5 5 5 5 6 6 6 6 7 6 6 6 5 4
16 16 15 16 18 18 18 18 16 14 14 13 12 11 10 8 7 6 5 5 5 5 6 5 6 6 6 6 6 5 5 5 5 5 5 5 5 5 5 5 5 6 6 7 6 5 5 4 4
15 15 16 17 19 18 18 17 16 14 14 13 12 11 10 9 8 7 6 6 6 5 6 6 6 7 7 6 6 5 5 4 4 4 4 4 3 3 3 4 5 5 5 5 5 5 5 4 3
14 15 16 18 19 18 18 17 16 14 13 12 11 11 10 9 8 7 7 7 6 6 6 7 7 7 7 6 6 5 4 4 4 4 4 3 3 3 3 3 4 5 4 5 4 5 5 3 3
14 15 17 18 19 18 17 17 17 15 13 12 12 11 10 9 9 8 9 8 8 7 7 7 7 6 6 6 5 5 4 4 4 4 3 3 2 2 2 2 3 4 4 4 4 4 5 4 3
13 15 16 17 18 17 16 16 16 15 13 13 12 11 11 10 9 9 10 9 9 8 7 7 7 6 6 5 4 4 4 4 3 3 2 2 2 2 2 2 2 2 3 3 3 3 3 3 3
14 14 15 16 16 16 16 16 15 15 14 14 13 12 12 11 10 10 10 10 9 9 8 8 7 6 6 5 4 4 4 3 3 3 3 3 2 2 2 2 3 2 2 3 3 4 4 4 3
12 13 14 15 14 15 15 15 15 14 14 14 13 13 12 11 10 10 10 9 10 10 9 8 8 7 6 6 5 4 4 3 3 3 3 3 2 2 2 2 2 1 2 2 3 3 4 4 4
11 13 14 14 13 14 14 14 14 14 13 14 14 13 12 11 11 10 9 9 10 10 9 9 9 8 6 6 5 5 4 3 2 3 3 2 2 2 2 1 0 0 1 1 2 4 4 4 4
11 12 13 13 13 14 14 14 14 14 13 14 14 13 13 12 12 11 10 10 10 9 9 9 9 8 7 6 5 5 5 4 3 3 3 3 3 2 2 2 1 1 0 0 2 4 4 4 4
9 10 11 13 13 13 14 14 14 14 13 14 13 13 13 13 12 12 11 11 10 10 9 9 9 8 8 7 6 6 5 5 4 4 4 4 4 3 3 3 2 1 0 0 2 3 3 3 3
7 9 11 11 12 13 13 14 14 13 13 14 14 13 13 13 13 13 12 11 10 10 10 9 8 8 7 7 7 6 6 5 5 5 5 5 4 4 4 4 3 2 2 1 1 3 3 2 3
6 7 9 10 11 11 12 12 13 12 12 14 14 12 11 12 13 13 12 11 10 10 9 9 8 8 7 7 7 7 6 6 5 5 5 5 4 5 5 5 4 4 4 3 2 1 2 2 1
6 6 8 10 11 11 11 11 12 12 12 12 13 12 11 12 12 12 11 11 10 9 9 9 8 8 7 7 7 7 6 6 6 6 6 5 5 5 5 5 5 5 4 3 3 2 1 1 1
5 5 8 9 10 10 10 9 11 11 11 11 12 12 11 11 11 11 11 10 10 10 9 9 9 8 8 7 7 7 7 6 6 6 6 5 6 6 6 6 6 5 4 3 3 2 2 2 1
4 5 7 9 9 10 9 9 9 11 10 9 10 10 10 10 10 10 10 10 10 9 9 9 9 9 8 8 7 7 7 6 6 6 5 6 6 6 6 6 6 5 5 3 2 2 2 2 2
3 3 6 6 7 9 9 9 9 10 10 10 10 9 9 10 10 9 9 9 10 10 9 9 9 9 8 8 8 7 7 7 7 6 5 6 5 5 5 5 5 5 4 4 2 2 3 2 2
3 2 3 4 5 7 7 8 8 8 9 10 10 10 9 9 9 9 9 9 9 9 9 9 9 9 8 7 7 8 7 7 7 6 6 6 6 5 5 5 4 4 5 5 3 3 3 3 3
5 4 2 2 3 5 6 6 6 7 8 9 9 9 9 9 9 9 9 9 9 8 8 8 9 8 8 7 7 7 7 7 7 7 6 6 6 5 5 4 4 4 5 5 5 4 4 3 4
6 5 3 2 1 4 5 4 5 4 6 8 8 8 9 9 9 9 9 9 8 8 8 7 7 8 7 7 6 6 6 5 6 7 6 6 6 6 5 5 5 5 5 5 5 5 4 4 4
8 6 5 4 4 5 6 3 4 4 5 7 7 8 8 8 8 8 9 9 8 8 7 7 6 7 7 7 6 5 5 5 6 6 6 6 6 6 6 6 6 5 5 5 5 5 4 4 4
9 7 6 6 6 6 5 2 3 3 4 5 7 7 7 7 8 8 8 8 8 8 7 7 6 6 6 6 6 5 6 6 6 5 6 6 5 5 5 6 6 6 5 5 5 5 5 5 5
10 9 9 8 9 7 5 4 3 4 4 4 5 6 7 7 7 7 7 8 8 8 7 7 6 5 6 6 6 6 6 5 5 4 4 5 5 5 5 5 6 6 5 5 5 5 5 6 5
13 12 11 10 10 8 7 7 5 5 5 4 5 5 6 6 6 6 6 7 7 7 7 6 6 5 5 5 6 6 6 5 5 4 4 4 4 5 5 5 5 5 5 5 5 5 5 5 5
16 15 14 12 11 9 8 8 6 4 4 5 5 4 5 6 6 6 6 6 6 6 6 5 5 4 4 4 5 5 5 5 4 4 4 4 4 5 5 5 5 5 5 6 7 6 6 6 6
16 16 15 13 10 9 10 11 9 5 4 5 5 3 4 5 6 6 6 6 5 5 5 5 5 4 3 3 3 4 4 4 4 4 4 4 4 5 5 6 6 6 6 7 7 7 7 7 7
16 15 15 13 12 13 14 13 10 8 6 6 5 4 3 5 5 5 6 6 5 5 5 5 4 4 4 3 3 3 4 4 4 4 4 4 5 5 6 6 7 7 7 8 8 8 8 7 7
17 16 16 16 15 15 15 13 10 8 8 7 6 6 5 5 5 5 5 5 5 6 5 5 5 5 5 4 4 4 4 5 5 5 5 6 6 6 7 7 7 8 8 8 8 8 8 8 8
19 18 19 19 19 18 17 15 12 10 9 9 8 7 7 7 6 7 6 6 6 6 6 6 6 6 6 6 5 5 6 6 7 7 7 8 8 8 8 8 8 8 9 8 8 8 8 8 8
20 20 19 21 20 20 19 16 14 12 11 11 11 9 8 9 8 8 8 8 7 8 8 7 7 7 7 7 7 8 8 8 8 9 9 9 9 9 9 9 8 8 8 8 8 9 9 9 10

GEFSSGP_500_meanwind_318.txt.gz
Wind_Speed
14 14 15 15 16 16 16 16 15 14 13 12 11 9 8 7 6 6 6 6 6 6 7 7 7 7 8 8 8 7 7 6 6 6 6 6 6 5 5 5 5 5 6 6 5 6 5 5 4
14 14 15 16 16 16 16 16 16 14 13 12 11 10 9 7 7 6 6 6 6 6 8 8 7 8 8 8 7 7 7 7 6 6 6 5 5 5 4 4 5 6 6 5 5 5 6 5 5
13 13 14 16 16 16 16 16 16 14 14 13 12 11 9 8 8 7 6 6 6 7 8 8 8 8 8 8 7 7 7 7 6 6 5 5 4 4 4 4 4 5 5 5 5 5 6 6 5
13 13 14 15 16 16 16 16 16 15 15 14 12 11 10 9 8 7 6 7 8 8 8 9 8 8 8 8 7 7 7 7 7 6 5 5 4 3 3 4 5 5 5 5 5 5 6 5 5
12 13 14 15 15 15 15 17 16 16 15 14 13 11 10 10 9 9 9 8 8 8 8 9 9 8 7 7 7 6 6 6 6 5 5 4 3 3 3 4 4 5 4 4 4 4 5 5 4
12 13 14 15 15 15 16 15 15 15 14 13 13 12 11 10 9 9 9 9 9 8 9 8 8 7 7 7 6 6 6 6 5 5 4 4 3 3 2 2 3 4 4 4 4 3 4 4 5
12 13 14 14 14 15 15 15 15 14 13 13 12 12 11 11 10 9 9 9 9 9 9 8 8 8 7 7 6 6 6 5 5 4 4 4 3 3 2 2 2 3 2 3 3 3 2 3 4
11 12 12 13 14 14 15 15 14 14 13 13 13 12 12 11 10 9 9 10 10 9 9 8 8 7 7 6 6 6 5 5 4 4 4 4 4 3 2 2 2 2 2 2 3 2 2 3 4
9 11 12 13 13 13 14 14 13 13 12 12 12 11 10 10 9 9 10 10 10 9 9 8 8 7 7 7 7 6 5 5 5 4 4 3 3 3 2 1 1 1 1 2 2 2 2 3 4
9 10 12 12 13 13 13 13 13 13 12 12 11 11 10 9 9 9 9 9 9 9 9 8 8 7 7 6 6 6 6 5 5 5 4 4 3 3 2 1 1 1 1 1 2 2 2 2 4
9 10 11 12 13 13 13 13 12 12 11 11 11 11 11 10 10 10 10 9 9 9 9 8 8 7 7 7 7 7 6 6 6 5 4 4 3 2 2 2 1 1 2 1 2 1 1 2 3
7 9 9 10 11 12 13 13 12 12 12 11 12 11 11 11 11 11 10 10 9 9 9 8 8 7 7 7 7 6 6 6 5 5 4 3 3 3 2 2 2 1 1 1 3 2 3 3 3
6 6 7 9 10 11 11 12 12 11 11 11 11 11 11 11 11 11 10 10 10 9 9 9 8 8 8 7 7 6 6 5 5 5 4 4 4 3 3 2 1 1 1 0 1 2 3 3 4
6 5 6 8 9 10 11 10 10 10 10 10 11 10 11 11 11 10 10 9 9 9 8 8 8 8 8 8 7 7 6 6 5 5 4 4 4 4 4 3 2 2 1 1 1 0 1 2 3
5 3 4 7 8 9 9 8 8 9 9 9 11 10 10 10 10 10 9 9 8 8 8 8 8 8 8 8 7 7 6 6 5 5 4 4 5 5 5 5 4 3 3 3 2 1 1 1 1
3 3 3 4 6 8 8 8 7 7 8 8 9 10 9 9 9 9 9 9 8 8 8 8 8 8 8 7 6 6 6 5 5 5 5 5 5 5 5 5 4 3 3 3 3 2 1 1 1
3 2 1 2 5 6 6 6 5 5 6 7 8 8 9 9 9 9 9 9 8 8 8 8 8 8 7 7 7 6 6 6 6 5 5 5 5 5 5 5 5 4 3 3 2 2 1 2 1
4 3 2 1 2 4 5 5 4 3 4 5 6 7 8 8 8 8 8 8 8 8 7 7 7 7 7 6 6 6 6 6 6 5 5 4 4 4 5 5 5 4 4 3 3 3 2 3 3
6 4 3 2 1 1 3 4 3 2 2 3 4 5 6 7 7 7 7 7 7 7 7 6 7 6 6 6 6 5 5 5 5 6 5 5 4 4 5 5 5 4 4 4 3 3 3 4 4
7 5 4 4 3 2 2 2 1 0 0 1 2 3 4 5 5 5 6 6 6 6 6 6 6 6 6 6 5 4 4 5 5 5 6 6 5 4 4 4 4 4 4 3 3 3 3 4 4
9 7 7 6 5 3 4 3 2 1 1 0 2 2 2 4 4 5 5 5 5 6 5 5 5 5 5 5 5 4 4 4 4 5 5 5 5 4 4 4 4 5 5 4 3 3 4 4 4
12 10 9 8 7 6 4 4 2 1 1 1 1 2 1 2 3 4 4 4 5 5 4 5 4 4 5 4 4 3 3 3 4 5 5 4 4 4 4 5 5 5 5 4 4 4 4 5 5
14 12 11 10 10 8 6 6 3 3 2 1 1 1 1 1 1 2 2 3 3 4 4 4 3 4 4 4 3 2 3 3 3 3 3 3 4 4 4 5 5 5 6 5 4 4 5 5 6
17 15 14 13 12 11 9 9 6 5 5 4 3 3 2 2 1 0 1 1 2 2 3 3 3 3 3 3 3 2 2 2 2 3 3 4 4 4 4 5 5 6 6 6 5 5 6 6 6
18 17 16 14 14 12 11 11 7 6 6 5 5 4 4 4 3 2 2 2 2 1 1 2 1 2 2 3 3 2 2 2 2 3 4 4 4 5 6 6 6 6 6 6 6 6 6 6 7
20 19 18 16 16 13 13 11 8 7 7 6 6 5 5 5 5 4 3 3 3 2 2 2 1 1 2 2 2 2 2 2 2 3 4 4 5 6 7 7 8 8 7 7 6 7 7 7 8
21 20 19 19 18 16 14 12 9 9 8 7 6 6 6 6 6 6 5 5 4 4 4 3 2 2 2 2 2 2 3 3 3 4 4 5 5 6 7 8 8 8 8 8 8 7 7 8 8
20 20 20 20 19 19 16 13 10 10 9 8 8 8 8 7 7 7 6 6 5 5 5 4 4 3 3 3 3 3 3 4 4 5 5 6 7 7 7 7 8 8 9 9 9 9 8 8 9
22 21 21 20 21 20 18 15 12 11 11 10 10 9 9 9 10 9 8 8 7 7 7 6 6 5 4 4 5 4 5 5 5 6 7 8 8 9 8 9 9 9 9 10 10 10 10 10 11
23 22 22 22 22 20 18 15 13 13 13 13 12 11 10 10 10 10 9 9 9 9 8 7 7 6 6 6 6 6 6 6 6 7 8 9 10 10 10 10 10 10 10 11 12 11 11 12 13

GEFSSGP_500_meanwind_324.txt.gz
Wind_Speed
14 14 14 14 16 14 12 12 11 11 10 10 9 9 9 8 8 8 8 8 8 7 8 8 7 7 7 7 7 8 8 8 7 7 7 7 7 6 6 7 6 6 7 6 6 6 5 6 5
13 14 14 15 15 11 12 11 11 11 11 11 10 9 9 7 7 8 8 7 8 8 7 8 8 8 7 7 8 8 8 8 8 7 7 7 7 7 6 6 6 6 6 6 6 5 5 6 6
13 13 13 14 12 11 12 12 11 11 11 11 10 9 9 8 8 8 8 8 8 8 7 7 7 7 6 7 7 7 7 7 7 7 7 6 5 6 6 5 6 6 6 6 5 5 5 6 7
12 12 14 13 11 12 12 11 10 11 11 11 10 10 9 8 8 8 9 8 8 7 7 7 7 7 6 7 7 7 7 7 7 7 6 6 5 5 5 5 5 5 5 5 5 5 6 6 6
12 13 13 11 11 11 12 11 10 11 11 11 10 10 9 8 8 8 8 8 7 7 7 7 7 6 6 6 6 6 6 6 6 6 5 5 5 5 5 5 5 5 5 5 5 6 6 6 6
12 12 10 10 10 11 11 12 11 11 10 10 9 9 10 8 8 8 7 8 7 7 7 7 7 6 6 6 6 6 6 6 6 6 5 5 5 5 5 5 5 6 5 5 4 5 5 5 5
12 12 10 10 11 11 11 11 11 11 11 10 9 9 9 9 8 8 8 7 7 6 6 6 6 5 5 5 5 5 5 5 6 5 5 5 4 4 4 4 4 4 4 4 4 4 5 5 5
11 12 10 10 10 11 11 11 10 10 10 9 9 9 9 9 8 8 7 7 6 6 6 5 5 4 4 5 5 5 5 5 4 4 5 4 4 3 3 3 4 4 4 3 3 3 4 4 4
11 12 10 10 10 11 11 11 10 10 9 9 9 9 9 8 9 8 8 7 6 6 6 5 5 4 4 5 5 5 5 4 4 4 4 4 3 3 3 3 3 4 4 3 2 3 3 3 4
10 10 9 9 10 10 11 11 11 10 9 9 9 9 9 8 9 8 7 7 6 6 6 6 5 5 5 5 6 5 5 4 5 4 4 4 3 3 3 2 2 3 3 3 2 2 3 3 3
9 8 8 9 9 10 10 11 11 10 10 10 9 9 9 8 8 7 7 7 6 6 5 5 5 5 5 5 6 5 5 5 5 4 4 3 3 3 3 2 2 2 2 2 2 3 3 4 3
8 8 7 7 8 9 10 11 10 9 9 10 9 9 8 7 7 7 7 7 6 6 6 5 6 6 5 5 5 5 4 5 5 4 4 3 3 2 3 2 2 1 2 2 2 3 2 3 3
7 7 6 6 7 8 9 10 9 9 9 9 9 8 7 7 7 7 7 7 6 6 6 6 7 6 6 5 4 4 4 4 4 4 4 3 3 2 3 2 1 2 2 2 2 3 3 4 4
6 6 6 5 6 7 7 8 8 8 8 9 8 7 7 6 7 7 7 6 6 5 6 6 6 6 6 5 4 4 4 4 4 4 4 3 3 3 2 1 1 1 2 2 3 3 3 3 3
4 5 4 4 4 5 6 7 7 6 7 7 7 6 6 6 6 6 6 6 5 5 6 5 6 5 5 5 4 4 4 5 5 4 4 4 4 3 3 2 1 1 1 1 1 1 2 2 3
3 4 3 3 3 4 5 6 5 4 5 6 5 5 5 5 5 5 5 5 5 5 5 5 5 5 5 4 4 4 4 4 5 4 4 4 3 3 3 3 3 2 2 1 1 1 2 2 2
1 1 1 2 3 3 3 3 3 3 4 4 4 4 4 3 4 4 4 5 5 5 5 5 5 5 5 4 4 4 4 4 4 4 4 4 4 4 4 4 3 3 3 2 2 2 1 1 1
4 3 1 2 3 3 3 3 3 3 3 3 3 3 3 2 2 3 3 3 4 4 5 5 4 4 4 4 4 4 4 4 3 4 4 4 4 4 4 4 4 3 3 3 2 2 1 1 1
6 5 3 3 2 2 3 3 3 3 3 3 2 2 2 1 2 2 2 2 3 3 4 4 3 4 4 4 3 3 3 3 3 2 3 3 3 4 4 5 4 4 4 3 2 2 1 1 3
8 6 5 5 4 4 4 4 4 4 4 3 2 1 1 0 0 0 1 1 2 3 3 3 3 3 3 3 3 2 2 2 2 2 2 2 2 3 3 4 5 4 4 4 3 2 2 2 3
10 8 8 7 6 5 5 6 5 4 4 3 2 2 2 2 1 1 1 1 1 2 2 2 3 2 2 2 2 2 2 1 2 2 1 2 3 2 3 4 4 4 4 4 4 3 3 3 3
11 11 9 8 7 6 6 6 6 5 4 4 3 2 3 3 3 2 2 2 2 2 1 1 2 2 1 1 1 1 1 1 1 2 2 2 3 3 3 3 3 3 3 3 4 3 4 4 5
14 12 11 10 8 8 8 7 7 6 5 4 4 3 4 4 4 4 4 3 3 3 2 2 2 1 2 2 1 1 1 1 1 1 2 2 2 3 3 3 3 3 3 3 3 4 5 5 5
14 13 12 11 10 10 9 9 8 6 6 5 5 5 4 5 5 5 5 5 4 4 4 4 3 3 3 3 2 2 2 2 1 1 2 2 2 2 2 2 3 3 4 4 4 4 5 6 6
15 13 11 11 11 12 11 10 10 9 7 6 6 6 6 6 6 6 6 6 6 5 5 5 4 4 4 3 3 3 3 3 2 2 2 3 3 3 2 2 3 3 4 4 5 6 6 6 7
17 15 14 13 12 12 13 11 11 10 8 7 7 7 8 7 7 8 8 7 7 7 7 6 6 5 5 4 4 4 3 3 3 3 3 3 3 3 3 3 3 4 5 6 6 7 7 7 8
19 18 17 16 15 13 12 12 12 11 9 9 9 8 8 8 9 9 9 8 8 7 8 7 7 6 6 6 5 5 5 4 4 4 4 4 4 4 4 4 5 6 7 7 8 8 8 8 9
20 19 19 18 16 14 13 12 11 11 11 10 9 9 10 10 10 10 10 9 9 8 9 9 8 8 8 8 7 7 6 5 5 5 5 6 6 5 6 6 6 7 8 9 9 10 9 10 10
20 21 19 18 17 15 14 13 13 13 11 10 10 10 10 11 12 12 11 10 10 9 9 10 10 10 9 9 8 8 8 7 7 7 7 8 7 7 7 8 8 9 10 11 11 11 11 11 12
21 21 20 20 19 18 16 15 14 14 13 12 12 11 11 12 12 12 12 11 11 11 11 12 12 11 11 10 10 9 9 9 9 9 9 9 9 9 9 9 10 11 12 12 13 13 13 13 13

GEFSSGP_500_meanwind_330.txt.gz
Wind_Speed
15 14 14 15 15 13 9 8 7 6 5 3 3 3 3 3 3 3 3 3 3 3 3 3 3 4 4 4 4 4 3 3 4 3 3 3 4 4 4 4 4 4 4 4 4 4 3 3 3
15 13 16 17 14 10 9 8 8 7 5 3 3 3 3 4 4 4 3 3 3 3 3 3 3 3 3 4 4 4 3 3 3 2 3 3 3 4 4 3 3 3 4 4 4 4 3 3 3
15 14 17 16 11 9 10 10 9 8 6 4 4 4 3 3 4 4 4 3 3 4 3 3 4 4 4 4 3 3 2 3 3 2 3 3 3 3 3 3 3 3 3 3 3 3 3 3 4
14 16 17 14 10 10 10 10 10 9 7 6 4 4 4 3 4 4 4 4 4 5 4 4 4 4 4 3 3 3 2 2 2 2 3 4 3 2 3 3 3 3 3 2 2 2 2 4 5
15 16 14 11 10 10 10 9 10 9 8 6 5 4 4 4 4 4 4 4 5 5 5 4 4 4 4 4 3 3 3 2 2 2 3 3 3 3 3 2 2 3 3 2 2 2 3 3 4
15 14 10 8 9 9 9 10 9 8 8 7 5 4 5 5 4 4 4 4 4 5 5 4 4 4 4 3 3 2 2 2 3 2 2 2 2 2 2 2 2 2 3 2 2 3 4 4 4
13 12 9 8 8 8 9 10 10 9 7 7 7 6 5 5 4 4 4 4 4 5 4 4 4 4 3 3 3 2 2 1 2 2 2 2 1 1 1 1 2 2 2 2 2 3 3 3 3
13 11 7 7 8 8 8 9 9 9 8 7 7 7 6 5 4 4 4 4 5 5 5 5 5 5 4 3 2 2 2 1 1 2 2 1 1 1 0 0 1 1 1 2 3 2 2 3 3
8 8 7 6 7 7 8 9 9 8 7 7 6 7 7 6 6 5 5 5 5 5 5 5 5 4 4 4 3 2 2 2 1 1 2 1 1 1 0 1 1 2 2 2 2 1 2 2 3
6 6 6 5 6 7 8 8 9 8 7 7 7 7 8 7 7 6 6 6 6 7 6 6 5 4 4 4 3 3 3 3 2 2 2 1 1 1 1 1 1 1 2 1 2 2 3 3 4
5 4 5 5 6 7 8 8 8 8 7 6 6 7 7 8 7 7 7 7 7 7 6 6 5 5 4 4 4 3 3 3 2 2 2 2 2 2 2 2 1 2 2 2 3 4 4 4 5
4 4 4 5 6 6 7 7 7 8 8 7 7 6 7 8 7 7 7 7 6 6 6 5 5 5 5 5 5 5 4 3 2 2 2 2 2 2 2 2 1 2 3 4 4 4 4 4 6
3 3 3 5 6 7 7 7 8 8 8 7 7 7 7 8 8 7 8 7 7 7 6 7 6 6 5 5 6 6 5 4 4 3 2 2 3 3 3 2 2 2 3 4 4 4 4 4 5
2 3 5 6 7 8 7 7 8 8 8 8 7 7 7 8 8 8 8 8 7 7 6 6 7 6 5 5 6 6 6 6 5 4 3 3 3 3 3 3 3 3 3 4 4 4 5 5 5
2 4 6 7 8 8 8 7 8 8 8 7 7 7 7 7 8 8 8 8 8 7 7 7 7 6 6 6 6 6 6 7 7 5 4 4 4 4 4 4 3 3 4 4 4 4 4 5 5
2 2 4 5 8 8 8 8 9 9 8 7 7 7 7 6 7 7 7 8 8 8 8 7 7 7 7 6 6 6 5 6 6 6 5 5 4 4 4 4 4 4 4 5 5 5 5 4 5
3 2 4 5 8 7 7 8 9 9 8 7 7 7 7 6 7 7 7 7 7 7 8 7 7 7 7 6 6 6 5 5 5 5 6 5 5 5 5 4 5 5 5 5 6 5 5 5 6
1 3 4 3 8 7 7 8 9 10 9 7 7 7 7 7 6 7 7 7 7 7 7 7 7 7 7 7 6 6 5 5 5 5 5 6 6 5 5 5 5 5 5 5 5 5 5 5 6
4 6 6 5 7 9 7 8 9 9 10 9 7 7 7 7 6 7 7 7 7 7 6 6 6 7 7 7 6 5 5 5 5 5 5 6 6 6 6 6 5 5 5 4 4 5 5 6 7
7 8 7 6 7 8 8 7 9 9 9 9 9 9 7 7 7 7 7 7 7 7 7 6 7 7 7 6 6 6 6 5 5 5 5 6 6 6 6 5 5 4 4 4 5 5 6 6 7
9 9 8 9 9 8 9 10 9 10 8 8 9 9 8 8 7 7 7 7 6 6 6 6 6 7 7 7 6 6 6 6 6 5 5 5 5 6 6 6 6 5 4 4 5 6 6 7 8
10 10 11 11 10 7 8 11 12 12 10 7 8 8 8 8 7 6 7 7 6 6 6 6 6 7 7 7 7 6 6 6 5 5 5 5 5 6 6 6 6 7 6 5 6 7 7 7 7
11 10 10 10 10 9 9 11 13 13 11 9 8 8 8 8 7 7 6 7 6 5 5 6 6 6 7 7 7 7 6 5 5 5 6 6 5 5 6 6 6 6 6 6 7 7 7 8 8
12 11 11 12 11 12 11 12 13 14 14 11 9 9 9 8 7 7 7 6 6 6 5 5 6 6 6 7 7 7 6 5 5 5 6 6 6 6 6 6 6 6 7 7 7 7 7 8 9
13 11 12 12 11 12 11 11 13 14 14 12 10 9 11 10 9 7 8 8 7 7 6 6 6 6 7 7 7 7 6 6 6 6 6 7 7 7 7 6 7 7 7 8 9 9 8 9 9
14 13 13 12 12 14 13 12 13 11 13 13 11 10 12 11 11 9 9 9 9 8 8 7 7 7 7 7 7 7 7 7 7 6 6 7 7 7 7 7 7 8 8 9 9 9 10 10 11
15 16 15 14 14 16 16 16 14 12 14 13 12 11 11 11 11 10 9 9 9 9 9 8 8 8 8 8 8 7 7 7 7 7 7 8 8 8 8 8 9 9 9 10 10 10 11 12 12
18 16 15 16 17 17 17 17 14 14 13 14 12 11 11 11 10 10 11 10 9 9 9 9 9 9 9 9 8 8 8 8 8 8 8 9 9 9 10 10 10 11 11 12 12 12 13 13 14
18 17 17 18 18 16 17 18 16 15 15 14 14 12 12 11 11 11 11 11 11 11 11 11 11 11 11 10 10 9 9 10 10 10 10 10 10 11 11 11 12 13 13 13 13 14 14 14 15
20 19 18 18 18 17 19 20 18 17 14 13 13 14 14 13 11 11 12 13 13 12 12 13 13 13 12 12 11 11 11 10 11 11 11 12 11 12 13 13 14 14 15 15 15 15 15 15 16